GEFSMA_prec_meanprecacc_066.txt.gz
Total_Precipitation_Accumulation
0.08 0.08 0.08 0.09 0.10 0.13 0.16 0.14 0.13 0.07 0.04 0.03 0.03 0.04 0.04 0.03 0.03 0.07 0.08 0.08 0.08 0.10 0.14 0.14 0.12 0.10 0.10 0.10 0.10 0.10 0.10 0.09 0.09 0.08 0.07 0.06 0.05 0.05 0.05 0.05 0.05 0.07 0.09
0.08 0.10 0.12 0.13 0.10 0.10 0.12 0.13 0.14 0.10 0.06 0.04 0.05 0.06 0.07 0.05 0.05 0.09 0.11 0.11 0.11 0.12 0.16 0.18 0.18 0.17 0.15 0.15 0.16 0.15 0.15 0.14 0.14 0.15 0.14 0.12 0.10 0.09 0.09 0.08 0.07 0.06 0.07
0.10 0.12 0.16 0.19 0.17 0.14 0.13 0.14 0.14 0.15 0.13 0.10 0.11 0.11 0.10 0.10 0.11 0.12 0.11 0.14 0.16 0.18 0.22 0.21 0.19 0.17 0.16 0.17 0.21 0.23 0.22 0.22 0.22 0.23 0.22 0.20 0.18 0.15 0.14 0.13 0.12 0.11 0.10
0.16 0.20 0.26 0.29 0.32 0.29 0.28 0.30 0.28 0.25 0.24 0.21 0.19 0.18 0.17 0.16 0.16 0.15 0.14 0.13 0.12 0.13 0.14 0.15 0.15 0.16 0.16 0.17 0.20 0.22 0.25 0.25 0.25 0.24 0.25 0.26 0.25 0.22 0.20 0.19 0.18 0.17 0.15
0.31 0.39 0.48 0.53 0.55 0.54 0.52 0.47 0.47 0.43 0.41 0.38 0.30 0.25 0.21 0.19 0.19 0.16 0.13 0.13 0.12 0.11 0.10 0.10 0.12 0.13 0.13 0.15 0.16 0.18 0.20 0.24 0.25 0.25 0.25 0.29 0.31 0.28 0.24 0.22 0.21 0.19 0.17
0.61 0.71 0.78 0.85 0.83 0.79 0.74 0.70 0.64 0.55 0.47 0.41 0.32 0.25 0.21 0.18 0.16 0.13 0.10 0.08 0.07 0.07 0.06 0.05 0.06 0.07 0.11 0.12 0.13 0.13 0.15 0.21 0.27 0.28 0.25 0.28 0.33 0.31 0.26 0.24 0.24 0.23 0.21
1.18 1.17 1.13 1.11 1.02 0.94 0.86 0.74 0.64 0.56 0.50 0.41 0.32 0.23 0.14 0.10 0.08 0.08 0.06 0.05 0.04 0.04 0.03 0.02 0.02 0.02 0.04 0.08 0.11 0.11 0.12 0.17 0.24 0.26 0.24 0.28 0.32 0.31 0.28 0.26 0.25 0.24 0.25
1.78 1.63 1.47 1.26 1.11 1.00 0.91 0.81 0.70 0.60 0.48 0.36 0.29 0.24 0.15 0.09 0.05 0.03 0.03 0.03 0.02 0.02 0.02 0.02 0.02 0.02 0.02 0.02 0.04 0.09 0.12 0.09 0.10 0.16 0.23 0.29 0.30 0.29 0.29 0.29 0.28 0.27 0.27
2.03 1.87 1.60 1.37 1.25 1.13 1.03 0.92 0.75 0.61 0.46 0.31 0.22 0.20 0.17 0.10 0.05 0.03 0.02 0.01 0.01 0.01 0.01 0.01 0.01 0.01 0.01 0.01 0.02 0.03 0.07 0.10 0.08 0.08 0.17 0.26 0.27 0.26 0.28 0.30 0.31 0.33 0.35
1.79 1.60 1.46 1.35 1.25 1.13 1.00 0.81 0.61 0.46 0.34 0.24 0.16 0.12 0.10 0.07 0.06 0.04 0.01 0.01 0.01 0.01 0.01 0.01 0.01 0.01 0.01 0.01 0.02 0.03 0.05 0.07 0.08 0.08 0.11 0.17 0.21 0.21 0.21 0.23 0.26 0.30 0.34
1.52 1.32 1.18 1.08 0.97 0.82 0.65 0.49 0.36 0.29 0.22 0.17 0.12 0.09 0.07 0.05 0.05 0.06 0.04 0.02 0.01 0.01 0.01 0.01 0.01 0.01 0.01 0.02 0.03 0.04 0.06 0.08 0.09 0.10 0.10 0.11 0.14 0.18 0.21 0.24 0.27 0.32 0.35
1.16 0.97 0.77 0.63 0.51 0.39 0.29 0.22 0.17 0.14 0.13 0.11 0.08 0.07 0.06 0.06 0.06 0.07 0.07 0.04 0.02 0.01 0.01 0.01 0.01 0.01 0.01 0.02 0.03 0.06 0.10 0.13 0.14 0.14 0.13 0.11 0.11 0.12 0.16 0.22 0.28 0.34 0.41
0.74 0.55 0.39 0.31 0.25 0.20 0.15 0.12 0.10 0.08 0.07 0.07 0.06 0.06 0.05 0.05 0.05 0.07 0.08 0.07 0.05 0.02 0.01 0.01 0.01 0.01 0.01 0.01 0.04 0.08 0.15 0.13 0.13 0.12 0.11 0.10 0.09 0.08 0.09 0.12 0.17 0.24 0.33
0.35 0.27 0.21 0.16 0.13 0.09 0.07 0.05 0.04 0.04 0.04 0.05 0.04 0.06 0.06 0.05 0.06 0.08 0.12 0.14 0.13 0.07 0.02 0.01 0.00 0.00 0.01 0.04 0.11 0.14 0.20 0.12 0.10 0.08 0.06 0.05 0.05 0.05 0.06 0.08 0.10 0.13 0.18
0.18 0.14 0.11 0.08 0.06 0.05 0.05 0.05 0.04 0.04 0.05 0.06 0.06 0.06 0.07 0.07 0.08 0.09 0.11 0.14 0.19 0.17 0.09 0.03 0.02 0.03 0.06 0.14 0.24 0.28 0.27 0.19 0.13 0.09 0.07 0.05 0.05 0.05 0.06 0.06 0.07 0.08 0.10
0.09 0.08 0.07 0.06 0.05 0.05 0.04 0.05 0.05 0.06 0.07 0.08 0.09 0.09 0.09 0.09 0.09 0.09 0.10 0.12 0.18 0.25 0.21 0.07 0.03 0.05 0.09 0.14 0.28 0.33 0.36 0.32 0.23 0.15 0.10 0.07 0.06 0.07 0.07 0.08 0.09 0.10 0.13
0.06 0.06 0.06 0.06 0.06 0.05 0.05 0.06 0.07 0.08 0.08 0.07 0.07 0.08 0.08 0.08 0.10 0.09 0.10 0.11 0.13 0.19 0.23 0.11 0.05 0.06 0.12 0.19 0.27 0.30 0.31 0.30 0.26 0.24 0.17 0.13 0.12 0.10 0.10 0.10 0.12 0.16 0.20
0.06 0.06 0.07 0.06 0.05 0.05 0.06 0.07 0.07 0.07 0.07 0.07 0.07 0.07 0.07 0.08 0.09 0.08 0.09 0.10 0.12 0.18 0.26 0.22 0.11 0.07 0.10 0.17 0.23 0.25 0.23 0.22 0.24 0.28 0.21 0.15 0.13 0.13 0.17 0.14 0.12 0.15 0.21
0.07 0.07 0.06 0.06 0.06 0.06 0.07 0.07 0.07 0.06 0.06 0.06 0.07 0.08 0.08 0.09 0.08 0.08 0.11 0.12 0.14 0.18 0.26 0.28 0.18 0.12 0.15 0.21 0.31 0.31 0.27 0.32 0.29 0.25 0.21 0.16 0.14 0.16 0.39 0.45 0.22 0.18 0.21
0.08 0.08 0.07 0.07 0.07 0.07 0.06 0.04 0.03 0.04 0.04 0.05 0.06 0.08 0.10 0.10 0.11 0.14 0.15 0.17 0.22 0.25 0.25 0.28 0.22 0.16 0.18 0.23 0.33 0.41 0.39 0.36 0.34 0.22 0.24 0.22 0.20 0.26 0.63 1.19 0.66 0.34 0.28
0.09 0.09 0.08 0.07 0.06 0.04 0.02 0.01 0.01 0.01 0.02 0.03 0.05 0.08 0.10 0.11 0.15 0.17 0.18 0.21 0.27 0.32 0.33 0.35 0.30 0.25 0.22 0.29 0.38 0.43 0.42 0.40 0.34 0.26 0.32 0.28 0.43 0.75 1.26 1.92 1.49 0.85 0.61
0.11 0.08 0.05 0.03 0.03 0.02 0.01 0.01 0.01 0.01 0.02 0.04 0.07 0.09 0.07 0.06 0.08 0.08 0.13 0.20 0.29 0.36 0.42 0.46 0.43 0.37 0.29 0.33 0.42 0.48 0.49 0.48 0.38 0.25 0.30 0.33 0.62 1.33 2.02 2.44 2.06 1.30 0.97
0.06 0.05 0.04 0.03 0.03 0.03 0.00 0.00 0.00 0.00 0.03 0.06 0.10 0.09 0.07 0.06 0.09 0.13 0.14 0.16 0.21 0.29 0.43 0.56 0.55 0.43 0.39 0.41 0.56 0.63 0.56 0.55 0.50 0.35 0.36 0.41 0.73 1.57 1.98 2.26 2.10 1.44 1.14
0.05 0.04 0.03 0.03 0.04 0.03 0.00 0.00 0.00 0.01 0.04 0.07 0.08 0.09 0.12 0.13 0.13 0.13 0.13 0.18 0.23 0.29 0.39 0.48 0.51 0.46 0.46 0.48 0.56 0.60 0.56 0.55 0.43 0.32 0.40 0.53 0.83 1.47 1.64 1.76 1.90 1.50 1.22
0.04 0.03 0.02 0.03 0.05 0.05 0.01 0.00 0.00 0.02 0.03 0.04 0.06 0.08 0.11 0.14 0.12 0.12 0.18 0.26 0.30 0.38 0.52 0.69 0.70 0.64 0.64 0.63 0.54 0.50 0.55 0.60 0.52 0.34 0.37 0.54 0.78 1.15 1.30 1.40 1.47 1.44 1.32
0.04 0.03 0.03 0.04 0.06 0.07 0.02 0.00 0.01 0.02 0.04 0.04 0.05 0.08 0.10 0.10 0.11 0.14 0.21 0.33 0.45 0.52 0.72 0.91 0.85 0.77 0.69 0.67 0.62 0.54 0.61 0.71 0.66 0.50 0.40 0.50 0.65 0.84 1.08 1.20 1.13 1.10 1.17

GEFSMA_prec_meanprecacc_072.txt.gz
Total_Precipitation_Accumulation
0.08 0.09 0.09 0.11 0.13 0.17 0.21 0.18 0.15 0.09 0.06 0.04 0.04 0.05 0.05 0.03 0.03 0.07 0.08 0.08 0.10 0.14 0.20 0.21 0.18 0.17 0.15 0.15 0.14 0.13 0.12 0.11 0.11 0.10 0.08 0.07 0.06 0.06 0.06 0.06 0.06 0.08 0.10
0.10 0.12 0.14 0.16 0.14 0.15 0.17 0.18 0.18 0.14 0.08 0.06 0.07 0.08 0.08 0.05 0.05 0.09 0.11 0.12 0.13 0.15 0.20 0.23 0.25 0.24 0.21 0.21 0.22 0.20 0.19 0.17 0.18 0.18 0.17 0.14 0.12 0.10 0.10 0.09 0.08 0.08 0.08
0.11 0.13 0.19 0.24 0.23 0.21 0.20 0.21 0.21 0.19 0.16 0.13 0.14 0.13 0.12 0.11 0.13 0.13 0.12 0.16 0.18 0.20 0.25 0.25 0.24 0.24 0.22 0.23 0.27 0.28 0.27 0.26 0.26 0.28 0.27 0.24 0.21 0.18 0.16 0.14 0.14 0.13 0.11
0.18 0.23 0.33 0.37 0.41 0.40 0.39 0.40 0.38 0.35 0.32 0.27 0.24 0.20 0.19 0.18 0.17 0.16 0.15 0.14 0.14 0.16 0.17 0.18 0.19 0.21 0.21 0.23 0.26 0.30 0.33 0.33 0.33 0.31 0.31 0.31 0.30 0.26 0.23 0.21 0.20 0.20 0.17
0.38 0.50 0.63 0.68 0.68 0.67 0.67 0.62 0.61 0.55 0.53 0.47 0.37 0.29 0.24 0.22 0.22 0.17 0.14 0.14 0.13 0.13 0.12 0.12 0.13 0.14 0.15 0.18 0.22 0.27 0.31 0.34 0.35 0.33 0.32 0.35 0.36 0.33 0.28 0.26 0.24 0.22 0.20
0.76 0.86 0.92 0.98 0.99 1.00 0.94 0.88 0.82 0.70 0.60 0.53 0.41 0.31 0.26 0.22 0.19 0.15 0.12 0.10 0.09 0.07 0.06 0.06 0.07 0.09 0.12 0.14 0.17 0.18 0.23 0.30 0.36 0.36 0.33 0.35 0.38 0.35 0.30 0.28 0.28 0.26 0.25
1.36 1.36 1.35 1.32 1.24 1.17 1.08 0.96 0.85 0.74 0.66 0.53 0.43 0.32 0.21 0.14 0.12 0.11 0.09 0.07 0.05 0.05 0.03 0.03 0.03 0.04 0.06 0.09 0.12 0.12 0.14 0.20 0.29 0.31 0.29 0.33 0.38 0.36 0.33 0.30 0.28 0.27 0.27
2.08 1.95 1.79 1.57 1.40 1.28 1.20 1.06 0.91 0.78 0.65 0.50 0.41 0.35 0.24 0.14 0.08 0.06 0.06 0.05 0.04 0.03 0.02 0.02 0.03 0.03 0.02 0.02 0.04 0.10 0.13 0.11 0.12 0.19 0.28 0.34 0.34 0.34 0.34 0.33 0.32 0.31 0.30
2.38 2.21 1.94 1.71 1.57 1.45 1.32 1.17 0.95 0.79 0.61 0.44 0.32 0.30 0.27 0.20 0.11 0.06 0.04 0.03 0.02 0.01 0.01 0.01 0.02 0.01 0.01 0.01 0.02 0.03 0.08 0.11 0.08 0.10 0.20 0.30 0.32 0.32 0.34 0.35 0.37 0.38 0.39
2.13 1.89 1.74 1.66 1.55 1.39 1.23 1.01 0.78 0.61 0.48 0.36 0.26 0.22 0.19 0.15 0.12 0.07 0.03 0.02 0.01 0.01 0.01 0.01 0.01 0.01 0.01 0.01 0.02 0.03 0.05 0.08 0.09 0.09 0.12 0.19 0.24 0.25 0.26 0.29 0.34 0.38 0.41
1.78 1.57 1.41 1.33 1.24 1.07 0.86 0.66 0.52 0.42 0.33 0.26 0.20 0.16 0.14 0.12 0.10 0.10 0.07 0.03 0.02 0.01 0.01 0.01 0.01 0.01 0.01 0.02 0.03 0.04 0.06 0.08 0.09 0.10 0.11 0.11 0.15 0.20 0.24 0.28 0.34 0.42 0.46
1.38 1.18 0.96 0.79 0.66 0.52 0.39 0.30 0.24 0.20 0.18 0.15 0.12 0.11 0.11 0.11 0.11 0.11 0.10 0.06 0.03 0.01 0.01 0.01 0.01 0.01 0.01 0.02 0.03 0.06 0.10 0.13 0.14 0.14 0.13 0.11 0.11 0.13 0.17 0.23 0.31 0.38 0.48
0.89 0.69 0.52 0.40 0.31 0.24 0.19 0.15 0.12 0.10 0.08 0.08 0.08 0.08 0.07 0.06 0.06 0.08 0.09 0.08 0.06 0.03 0.01 0.01 0.01 0.01 0.01 0.01 0.04 0.08 0.15 0.13 0.13 0.12 0.11 0.10 0.09 0.08 0.09 0.12 0.18 0.26 0.36
0.44 0.34 0.27 0.21 0.16 0.12 0.08 0.07 0.06 0.05 0.05 0.06 0.05 0.06 0.07 0.06 0.07 0.09 0.12 0.14 0.13 0.07 0.02 0.01 0.00 0.00 0.01 0.04 0.11 0.14 0.20 0.12 0.10 0.08 0.06 0.05 0.05 0.05 0.06 0.08 0.10 0.13 0.18
0.23 0.18 0.14 0.10 0.07 0.06 0.06 0.05 0.05 0.05 0.06 0.07 0.07 0.07 0.08 0.08 0.09 0.10 0.11 0.14 0.19 0.17 0.10 0.03 0.03 0.03 0.06 0.14 0.24 0.28 0.27 0.19 0.13 0.09 0.07 0.05 0.05 0.05 0.06 0.06 0.07 0.08 0.10
0.12 0.10 0.09 0.08 0.07 0.06 0.06 0.06 0.06 0.06 0.08 0.08 0.10 0.10 0.10 0.09 0.09 0.09 0.10 0.12 0.18 0.25 0.21 0.07 0.03 0.05 0.09 0.15 0.28 0.33 0.36 0.32 0.23 0.15 0.10 0.07 0.06 0.07 0.07 0.08 0.09 0.10 0.13
0.08 0.08 0.08 0.08 0.08 0.07 0.06 0.07 0.08 0.09 0.08 0.08 0.08 0.08 0.08 0.08 0.10 0.09 0.10 0.11 0.13 0.20 0.23 0.12 0.05 0.06 0.12 0.20 0.27 0.30 0.31 0.30 0.26 0.24 0.17 0.13 0.12 0.10 0.10 0.11 0.12 0.16 0.20
0.07 0.07 0.08 0.08 0.07 0.06 0.07 0.08 0.08 0.08 0.08 0.08 0.07 0.08 0.07 0.08 0.09 0.08 0.09 0.10 0.13 0.19 0.27 0.23 0.12 0.08 0.11 0.18 0.23 0.25 0.23 0.22 0.25 0.28 0.21 0.15 0.13 0.13 0.17 0.14 0.12 0.15 0.21
0.07 0.08 0.07 0.06 0.06 0.07 0.08 0.07 0.07 0.06 0.06 0.06 0.07 0.08 0.08 0.09 0.09 0.09 0.12 0.13 0.16 0.20 0.27 0.30 0.19 0.13 0.15 0.22 0.32 0.32 0.28 0.34 0.30 0.26 0.21 0.17 0.15 0.16 0.39 0.45 0.22 0.18 0.21
0.09 0.08 0.07 0.07 0.07 0.07 0.06 0.04 0.03 0.04 0.04 0.05 0.06 0.08 0.10 0.11 0.13 0.17 0.18 0.20 0.25 0.28 0.28 0.30 0.24 0.17 0.19 0.24 0.35 0.43 0.40 0.38 0.35 0.23 0.25 0.22 0.21 0.26 0.64 1.19 0.66 0.34 0.28
0.09 0.09 0.08 0.07 0.06 0.04 0.02 0.01 0.01 0.01 0.02 0.03 0.05 0.09 0.10 0.11 0.16 0.19 0.19 0.23 0.31 0.36 0.37 0.38 0.32 0.27 0.24 0.32 0.41 0.46 0.44 0.42 0.35 0.28 0.34 0.31 0.45 0.77 1.29 1.94 1.50 0.85 0.62
0.11 0.08 0.05 0.03 0.03 0.02 0.01 0.01 0.01 0.01 0.02 0.04 0.07 0.09 0.07 0.07 0.08 0.09 0.13 0.21 0.30 0.38 0.44 0.49 0.45 0.40 0.32 0.38 0.48 0.52 0.53 0.52 0.41 0.28 0.33 0.35 0.64 1.36 2.06 2.47 2.08 1.30 0.97
0.07 0.05 0.04 0.03 0.04 0.03 0.00 0.00 0.00 0.00 0.03 0.07 0.10 0.10 0.07 0.07 0.10 0.15 0.16 0.17 0.23 0.30 0.45 0.58 0.58 0.47 0.44 0.47 0.61 0.67 0.61 0.60 0.55 0.39 0.41 0.44 0.76 1.61 2.00 2.27 2.10 1.44 1.14
0.05 0.04 0.04 0.03 0.05 0.03 0.00 0.00 0.00 0.01 0.04 0.07 0.09 0.10 0.13 0.15 0.14 0.13 0.14 0.20 0.26 0.33 0.43 0.51 0.56 0.51 0.49 0.52 0.60 0.64 0.60 0.58 0.46 0.37 0.46 0.57 0.86 1.50 1.66 1.79 1.91 1.50 1.22
0.04 0.03 0.03 0.04 0.06 0.06 0.01 0.00 0.00 0.02 0.04 0.05 0.06 0.09 0.11 0.15 0.13 0.12 0.18 0.29 0.34 0.45 0.56 0.71 0.71 0.66 0.66 0.64 0.55 0.52 0.60 0.65 0.57 0.38 0.42 0.59 0.82 1.18 1.31 1.43 1.50 1.44 1.33
0.04 0.03 0.03 0.05 0.06 0.08 0.02 0.00 0.01 0.03 0.04 0.04 0.06 0.09 0.11 0.10 0.11 0.15 0.22 0.37 0.50 0.58 0.76 0.95 0.88 0.81 0.74 0.71 0.63 0.57 0.66 0.76 0.71 0.54 0.44 0.54 0.69 0.88 1.11 1.22 1.16 1.14 1.21

GEFSMA_prec_meanprecacc_078.txt.gz
Total_Precipitation_Accumulation
0.12 0.11 0.12 0.15 0.17 0.23 0.27 0.23 0.18 0.13 0.08 0.06 0.05 0.05 0.05 0.03 0.04 0.09 0.11 0.11 0.12 0.17 0.23 0.23 0.20 0.20 0.20 0.19 0.18 0.17 0.16 0.14 0.14 0.13 0.10 0.09 0.08 0.09 0.09 0.08 0.09 0.10 0.12
0.14 0.16 0.18 0.21 0.18 0.20 0.24 0.25 0.25 0.19 0.12 0.09 0.09 0.10 0.10 0.07 0.06 0.10 0.13 0.18 0.18 0.19 0.23 0.26 0.28 0.28 0.26 0.26 0.28 0.25 0.24 0.21 0.21 0.22 0.20 0.16 0.14 0.13 0.12 0.11 0.10 0.09 0.10
0.15 0.17 0.25 0.31 0.29 0.27 0.27 0.28 0.28 0.26 0.21 0.17 0.20 0.20 0.18 0.20 0.21 0.18 0.15 0.21 0.26 0.27 0.31 0.30 0.28 0.27 0.25 0.27 0.32 0.33 0.32 0.30 0.31 0.32 0.30 0.27 0.24 0.20 0.18 0.16 0.15 0.14 0.13
0.22 0.29 0.39 0.45 0.49 0.48 0.49 0.51 0.48 0.45 0.42 0.36 0.32 0.29 0.27 0.26 0.24 0.25 0.21 0.21 0.27 0.30 0.32 0.28 0.25 0.26 0.24 0.26 0.30 0.34 0.38 0.38 0.38 0.35 0.35 0.35 0.33 0.28 0.25 0.23 0.22 0.21 0.19
0.46 0.59 0.71 0.78 0.79 0.79 0.78 0.73 0.73 0.68 0.70 0.62 0.49 0.40 0.33 0.29 0.30 0.27 0.21 0.20 0.24 0.29 0.31 0.30 0.25 0.21 0.19 0.21 0.25 0.31 0.37 0.41 0.41 0.38 0.37 0.40 0.41 0.37 0.31 0.29 0.27 0.24 0.22
0.84 0.95 1.01 1.08 1.10 1.12 1.06 1.01 0.94 0.82 0.74 0.65 0.52 0.42 0.38 0.34 0.31 0.27 0.22 0.17 0.16 0.17 0.19 0.20 0.20 0.18 0.17 0.18 0.20 0.23 0.28 0.36 0.42 0.42 0.39 0.42 0.46 0.43 0.37 0.33 0.32 0.30 0.28
1.48 1.48 1.47 1.45 1.36 1.32 1.25 1.12 0.98 0.88 0.78 0.64 0.54 0.44 0.34 0.26 0.23 0.22 0.18 0.14 0.12 0.12 0.12 0.12 0.13 0.13 0.13 0.14 0.16 0.16 0.17 0.24 0.33 0.35 0.34 0.40 0.45 0.43 0.39 0.37 0.35 0.33 0.33
2.24 2.11 1.95 1.73 1.53 1.42 1.34 1.21 1.04 0.91 0.78 0.64 0.55 0.50 0.38 0.28 0.20 0.14 0.12 0.11 0.09 0.08 0.09 0.08 0.09 0.09 0.08 0.06 0.06 0.12 0.16 0.13 0.16 0.22 0.32 0.39 0.40 0.40 0.40 0.39 0.37 0.36 0.35
2.50 2.31 2.04 1.81 1.67 1.55 1.42 1.29 1.09 0.95 0.76 0.58 0.46 0.45 0.42 0.33 0.22 0.13 0.08 0.06 0.05 0.05 0.05 0.05 0.05 0.04 0.05 0.04 0.04 0.05 0.10 0.13 0.11 0.13 0.24 0.34 0.37 0.38 0.40 0.42 0.42 0.43 0.44
2.23 1.98 1.81 1.72 1.61 1.46 1.32 1.12 0.90 0.75 0.61 0.49 0.41 0.37 0.32 0.27 0.23 0.16 0.10 0.06 0.05 0.04 0.04 0.04 0.03 0.03 0.04 0.05 0.05 0.06 0.08 0.10 0.11 0.11 0.15 0.22 0.28 0.31 0.33 0.36 0.41 0.45 0.48
1.90 1.66 1.49 1.39 1.30 1.14 0.94 0.74 0.58 0.49 0.40 0.33 0.28 0.25 0.22 0.19 0.17 0.16 0.13 0.08 0.05 0.03 0.03 0.03 0.03 0.04 0.04 0.05 0.06 0.07 0.09 0.10 0.11 0.12 0.12 0.13 0.18 0.23 0.29 0.34 0.41 0.48 0.53
1.49 1.27 1.03 0.86 0.72 0.58 0.45 0.35 0.29 0.25 0.22 0.19 0.16 0.15 0.15 0.15 0.14 0.14 0.14 0.09 0.06 0.04 0.03 0.03 0.03 0.03 0.03 0.04 0.05 0.08 0.11 0.14 0.14 0.15 0.14 0.13 0.13 0.15 0.19 0.27 0.35 0.43 0.53
0.99 0.77 0.59 0.47 0.37 0.30 0.24 0.19 0.16 0.13 0.11 0.11 0.11 0.11 0.10 0.09 0.09 0.10 0.12 0.10 0.07 0.04 0.02 0.02 0.01 0.01 0.01 0.02 0.04 0.09 0.15 0.14 0.13 0.12 0.11 0.10 0.10 0.09 0.10 0.13 0.20 0.28 0.38
0.53 0.42 0.33 0.26 0.20 0.15 0.11 0.09 0.07 0.07 0.07 0.08 0.07 0.08 0.09 0.08 0.08 0.10 0.13 0.15 0.14 0.08 0.03 0.02 0.01 0.01 0.01 0.05 0.11 0.14 0.20 0.12 0.10 0.08 0.07 0.06 0.05 0.06 0.07 0.08 0.11 0.14 0.19
0.28 0.22 0.17 0.12 0.08 0.07 0.07 0.06 0.06 0.06 0.07 0.08 0.08 0.08 0.09 0.09 0.09 0.10 0.12 0.15 0.20 0.18 0.11 0.04 0.03 0.04 0.06 0.14 0.24 0.28 0.27 0.19 0.13 0.09 0.07 0.05 0.05 0.05 0.06 0.06 0.07 0.08 0.11
0.14 0.12 0.10 0.09 0.07 0.06 0.06 0.06 0.06 0.07 0.08 0.09 0.10 0.10 0.10 0.09 0.10 0.10 0.10 0.13 0.19 0.26 0.22 0.08 0.04 0.05 0.09 0.15 0.28 0.33 0.36 0.32 0.23 0.15 0.10 0.08 0.06 0.07 0.07 0.08 0.09 0.10 0.13
0.09 0.08 0.08 0.08 0.08 0.08 0.07 0.08 0.09 0.09 0.09 0.08 0.08 0.09 0.08 0.09 0.10 0.10 0.10 0.12 0.14 0.21 0.24 0.12 0.06 0.06 0.13 0.21 0.28 0.31 0.32 0.31 0.27 0.25 0.17 0.14 0.12 0.10 0.10 0.11 0.12 0.16 0.20
0.07 0.08 0.08 0.08 0.07 0.06 0.07 0.08 0.08 0.08 0.08 0.08 0.07 0.08 0.08 0.08 0.09 0.09 0.10 0.11 0.14 0.20 0.29 0.24 0.13 0.09 0.12 0.19 0.26 0.28 0.24 0.23 0.25 0.28 0.22 0.15 0.13 0.13 0.17 0.15 0.12 0.15 0.21
0.08 0.08 0.07 0.06 0.06 0.07 0.08 0.07 0.07 0.06 0.06 0.06 0.07 0.08 0.09 0.10 0.09 0.11 0.14 0.15 0.18 0.22 0.30 0.33 0.21 0.16 0.17 0.24 0.35 0.34 0.30 0.37 0.31 0.26 0.22 0.17 0.15 0.16 0.39 0.45 0.22 0.18 0.21
0.09 0.08 0.08 0.07 0.07 0.07 0.06 0.04 0.03 0.04 0.04 0.05 0.06 0.09 0.10 0.11 0.13 0.18 0.19 0.22 0.27 0.31 0.32 0.35 0.28 0.21 0.23 0.29 0.40 0.48 0.44 0.42 0.38 0.24 0.27 0.23 0.22 0.27 0.64 1.19 0.66 0.34 0.29
0.09 0.09 0.08 0.07 0.06 0.04 0.02 0.01 0.01 0.01 0.03 0.04 0.06 0.09 0.11 0.11 0.16 0.19 0.19 0.24 0.32 0.38 0.40 0.42 0.36 0.30 0.28 0.37 0.47 0.51 0.48 0.45 0.38 0.32 0.38 0.33 0.49 0.82 1.34 1.98 1.52 0.87 0.62
0.11 0.08 0.05 0.04 0.03 0.02 0.01 0.01 0.01 0.01 0.02 0.05 0.09 0.10 0.08 0.07 0.08 0.09 0.14 0.21 0.30 0.39 0.46 0.51 0.48 0.44 0.37 0.44 0.54 0.58 0.58 0.57 0.45 0.32 0.37 0.38 0.68 1.41 2.11 2.52 2.10 1.31 0.97
0.08 0.07 0.05 0.04 0.05 0.03 0.00 0.00 0.00 0.01 0.04 0.09 0.12 0.12 0.09 0.08 0.12 0.17 0.17 0.17 0.25 0.33 0.46 0.59 0.61 0.52 0.49 0.53 0.67 0.71 0.66 0.65 0.59 0.43 0.46 0.47 0.81 1.66 2.04 2.29 2.10 1.44 1.14
0.07 0.06 0.05 0.05 0.07 0.04 0.00 0.00 0.00 0.01 0.06 0.09 0.10 0.12 0.15 0.18 0.16 0.13 0.14 0.22 0.32 0.42 0.48 0.54 0.60 0.55 0.52 0.54 0.63 0.67 0.64 0.62 0.51 0.44 0.53 0.62 0.90 1.53 1.68 1.83 1.93 1.50 1.22
0.06 0.05 0.04 0.05 0.08 0.07 0.01 0.00 0.00 0.02 0.05 0.07 0.09 0.11 0.12 0.17 0.13 0.12 0.19 0.31 0.39 0.52 0.60 0.73 0.72 0.67 0.66 0.65 0.56 0.53 0.63 0.71 0.62 0.44 0.47 0.62 0.84 1.20 1.33 1.47 1.53 1.45 1.33
0.06 0.05 0.05 0.06 0.08 0.09 0.02 0.00 0.01 0.03 0.05 0.06 0.09 0.14 0.13 0.10 0.11 0.15 0.22 0.38 0.54 0.62 0.79 0.99 0.94 0.87 0.81 0.77 0.66 0.58 0.71 0.82 0.77 0.59 0.48 0.57 0.73 0.92 1.13 1.24 1.19 1.18 1.27

GEFSMA_prec_meanprecacc_084.txt.gz
Total_Precipitation_Accumulation
0.15 0.14 0.15 0.18 0.19 0.26 0.33 0.32 0.27 0.19 0.14 0.10 0.08 0.10 0.12 0.10 0.12 0.17 0.19 0.21 0.20 0.26 0.34 0.34 0.30 0.29 0.27 0.26 0.24 0.22 0.19 0.18 0.17 0.16 0.13 0.11 0.10 0.10 0.10 0.10 0.10 0.12 0.14
0.17 0.18 0.20 0.23 0.20 0.24 0.30 0.35 0.31 0.23 0.16 0.13 0.13 0.16 0.17 0.14 0.15 0.20 0.24 0.29 0.28 0.29 0.36 0.40 0.40 0.38 0.35 0.35 0.35 0.31 0.29 0.26 0.26 0.26 0.23 0.19 0.16 0.14 0.14 0.13 0.12 0.11 0.11
0.21 0.21 0.27 0.33 0.32 0.30 0.30 0.31 0.31 0.30 0.25 0.22 0.25 0.25 0.25 0.28 0.32 0.32 0.28 0.34 0.41 0.42 0.46 0.44 0.42 0.40 0.37 0.37 0.41 0.40 0.38 0.36 0.36 0.37 0.34 0.31 0.27 0.23 0.20 0.18 0.17 0.16 0.14
0.29 0.34 0.42 0.47 0.52 0.51 0.52 0.54 0.51 0.47 0.44 0.39 0.35 0.32 0.31 0.32 0.33 0.37 0.37 0.38 0.46 0.49 0.49 0.43 0.40 0.39 0.37 0.38 0.41 0.43 0.46 0.46 0.45 0.42 0.41 0.40 0.37 0.31 0.27 0.25 0.24 0.24 0.21
0.54 0.65 0.75 0.82 0.85 0.84 0.82 0.76 0.76 0.71 0.72 0.65 0.52 0.43 0.37 0.35 0.39 0.38 0.35 0.34 0.36 0.43 0.45 0.42 0.38 0.37 0.33 0.32 0.35 0.41 0.47 0.51 0.49 0.46 0.45 0.47 0.46 0.41 0.35 0.32 0.30 0.27 0.26
0.95 1.03 1.07 1.14 1.15 1.16 1.11 1.05 0.98 0.86 0.78 0.68 0.54 0.45 0.41 0.37 0.36 0.34 0.30 0.26 0.25 0.26 0.26 0.27 0.29 0.29 0.29 0.30 0.32 0.34 0.38 0.46 0.52 0.51 0.48 0.51 0.53 0.48 0.42 0.37 0.36 0.34 0.33
1.62 1.59 1.56 1.53 1.43 1.37 1.30 1.16 1.02 0.92 0.81 0.66 0.56 0.47 0.36 0.28 0.25 0.24 0.22 0.20 0.19 0.19 0.19 0.20 0.22 0.24 0.24 0.24 0.25 0.25 0.27 0.33 0.42 0.44 0.44 0.50 0.55 0.52 0.47 0.44 0.41 0.39 0.39
2.42 2.25 2.07 1.81 1.60 1.47 1.38 1.24 1.07 0.94 0.81 0.66 0.57 0.52 0.41 0.29 0.21 0.16 0.16 0.16 0.15 0.15 0.15 0.14 0.15 0.16 0.14 0.12 0.11 0.18 0.23 0.22 0.24 0.31 0.41 0.48 0.49 0.48 0.49 0.48 0.47 0.46 0.45
2.71 2.49 2.17 1.91 1.74 1.60 1.46 1.31 1.11 0.97 0.79 0.60 0.48 0.48 0.44 0.36 0.24 0.15 0.09 0.07 0.07 0.07 0.08 0.07 0.07 0.07 0.08 0.08 0.09 0.12 0.17 0.20 0.19 0.20 0.31 0.41 0.44 0.45 0.48 0.51 0.53 0.55 0.57
2.43 2.13 1.93 1.80 1.66 1.50 1.35 1.14 0.91 0.76 0.63 0.51 0.43 0.39 0.35 0.29 0.25 0.18 0.10 0.07 0.06 0.06 0.05 0.05 0.04 0.04 0.05 0.07 0.09 0.10 0.13 0.15 0.16 0.17 0.21 0.28 0.34 0.36 0.39 0.44 0.50 0.56 0.60
2.02 1.77 1.58 1.46 1.36 1.18 0.97 0.75 0.60 0.50 0.41 0.35 0.30 0.26 0.24 0.21 0.18 0.17 0.14 0.09 0.07 0.05 0.04 0.04 0.04 0.04 0.05 0.06 0.07 0.10 0.13 0.14 0.16 0.18 0.20 0.23 0.26 0.29 0.33 0.39 0.46 0.54 0.61
1.62 1.38 1.12 0.94 0.79 0.63 0.49 0.38 0.32 0.28 0.25 0.22 0.18 0.16 0.16 0.16 0.15 0.15 0.15 0.10 0.07 0.05 0.05 0.04 0.04 0.03 0.04 0.04 0.06 0.10 0.13 0.16 0.18 0.18 0.17 0.16 0.16 0.18 0.23 0.31 0.39 0.47 0.57
1.10 0.90 0.70 0.55 0.42 0.34 0.28 0.24 0.20 0.17 0.13 0.12 0.12 0.12 0.11 0.10 0.10 0.11 0.13 0.11 0.08 0.05 0.03 0.02 0.01 0.01 0.02 0.02 0.05 0.10 0.17 0.15 0.14 0.13 0.12 0.11 0.10 0.10 0.11 0.15 0.22 0.31 0.41
0.60 0.48 0.39 0.30 0.24 0.19 0.15 0.11 0.09 0.08 0.08 0.08 0.07 0.09 0.09 0.08 0.09 0.11 0.14 0.17 0.15 0.09 0.04 0.03 0.01 0.01 0.02 0.05 0.12 0.16 0.21 0.13 0.11 0.09 0.07 0.06 0.06 0.06 0.07 0.09 0.11 0.15 0.21
0.31 0.25 0.19 0.14 0.10 0.09 0.08 0.07 0.06 0.07 0.08 0.08 0.08 0.08 0.09 0.09 0.10 0.11 0.12 0.16 0.21 0.19 0.11 0.05 0.04 0.04 0.07 0.14 0.25 0.29 0.28 0.20 0.14 0.10 0.07 0.06 0.05 0.06 0.06 0.07 0.07 0.09 0.11
0.16 0.12 0.11 0.09 0.08 0.07 0.07 0.07 0.07 0.07 0.09 0.09 0.10 0.10 0.10 0.09 0.10 0.10 0.10 0.13 0.19 0.26 0.22 0.08 0.04 0.05 0.10 0.15 0.29 0.33 0.36 0.32 0.24 0.15 0.11 0.08 0.07 0.07 0.08 0.09 0.10 0.12 0.14
0.10 0.09 0.09 0.09 0.09 0.08 0.08 0.09 0.10 0.10 0.09 0.08 0.08 0.09 0.08 0.09 0.10 0.10 0.10 0.12 0.14 0.21 0.25 0.13 0.06 0.07 0.13 0.21 0.29 0.31 0.32 0.31 0.27 0.25 0.18 0.15 0.13 0.11 0.11 0.12 0.13 0.17 0.21
0.08 0.08 0.09 0.08 0.07 0.07 0.07 0.09 0.09 0.08 0.08 0.08 0.07 0.08 0.08 0.08 0.09 0.09 0.10 0.11 0.14 0.20 0.29 0.24 0.13 0.09 0.12 0.19 0.26 0.28 0.24 0.23 0.26 0.28 0.22 0.16 0.13 0.13 0.18 0.15 0.13 0.16 0.22
0.08 0.08 0.07 0.07 0.06 0.07 0.08 0.07 0.07 0.06 0.06 0.06 0.07 0.08 0.09 0.10 0.09 0.11 0.14 0.15 0.18 0.22 0.30 0.33 0.21 0.16 0.17 0.24 0.35 0.35 0.30 0.37 0.31 0.26 0.22 0.17 0.16 0.17 0.40 0.46 0.22 0.18 0.21
0.09 0.08 0.08 0.07 0.07 0.07 0.06 0.04 0.03 0.04 0.04 0.05 0.06 0.09 0.10 0.11 0.13 0.18 0.19 0.22 0.27 0.31 0.32 0.35 0.28 0.21 0.23 0.29 0.41 0.48 0.44 0.42 0.38 0.24 0.27 0.24 0.22 0.28 0.65 1.20 0.67 0.35 0.29
0.10 0.09 0.08 0.07 0.06 0.04 0.02 0.01 0.01 0.01 0.03 0.04 0.06 0.09 0.11 0.11 0.16 0.19 0.19 0.24 0.32 0.38 0.40 0.42 0.36 0.30 0.28 0.37 0.47 0.51 0.48 0.45 0.38 0.32 0.38 0.33 0.49 0.82 1.34 1.99 1.53 0.88 0.63
0.11 0.08 0.05 0.04 0.03 0.02 0.01 0.01 0.01 0.01 0.02 0.05 0.09 0.10 0.08 0.07 0.08 0.09 0.14 0.21 0.30 0.39 0.46 0.51 0.48 0.44 0.37 0.44 0.55 0.58 0.58 0.57 0.45 0.32 0.37 0.38 0.68 1.41 2.11 2.52 2.10 1.31 0.98
0.08 0.07 0.05 0.04 0.05 0.03 0.00 0.00 0.00 0.01 0.04 0.09 0.12 0.12 0.09 0.08 0.12 0.17 0.17 0.17 0.25 0.33 0.46 0.59 0.61 0.52 0.49 0.54 0.67 0.71 0.66 0.65 0.59 0.43 0.46 0.47 0.81 1.66 2.04 2.29 2.11 1.44 1.14
0.07 0.06 0.05 0.05 0.07 0.04 0.00 0.00 0.00 0.01 0.06 0.09 0.10 0.12 0.15 0.18 0.16 0.13 0.14 0.22 0.32 0.42 0.48 0.54 0.61 0.55 0.53 0.55 0.63 0.67 0.64 0.62 0.51 0.45 0.53 0.62 0.90 1.53 1.68 1.83 1.93 1.50 1.22
0.06 0.05 0.04 0.05 0.08 0.07 0.01 0.00 0.00 0.02 0.05 0.07 0.09 0.11 0.12 0.17 0.13 0.12 0.19 0.31 0.39 0.52 0.60 0.73 0.73 0.67 0.66 0.65 0.56 0.53 0.63 0.71 0.62 0.44 0.47 0.62 0.85 1.20 1.33 1.47 1.54 1.45 1.33
0.06 0.05 0.05 0.06 0.08 0.09 0.02 0.00 0.01 0.03 0.05 0.06 0.10 0.14 0.13 0.11 0.11 0.15 0.22 0.38 0.54 0.62 0.79 0.99 0.94 0.87 0.82 0.78 0.66 0.59 0.71 0.82 0.78 0.59 0.49 0.57 0.73 0.92 1.14 1.24 1.20 1.18 1.27

GEFSMA_prec_meanprecacc_090.txt.gz
Total_Precipitation_Accumulation
0.18 0.17 0.18 0.21 0.23 0.29 0.35 0.34 0.29 0.21 0.16 0.14 0.11 0.12 0.13 0.11 0.13 0.19 0.22 0.25 0.25 0.33 0.44 0.47 0.43 0.41 0.38 0.36 0.33 0.30 0.26 0.24 0.24 0.22 0.17 0.15 0.14 0.14 0.15 0.14 0.14 0.15 0.17
0.22 0.24 0.25 0.28 0.26 0.29 0.34 0.38 0.35 0.27 0.19 0.16 0.16 0.18 0.19 0.17 0.17 0.23 0.28 0.34 0.34 0.36 0.47 0.52 0.52 0.51 0.50 0.51 0.49 0.43 0.39 0.35 0.34 0.32 0.29 0.24 0.20 0.19 0.19 0.17 0.15 0.13 0.14
0.31 0.31 0.38 0.43 0.39 0.36 0.35 0.36 0.36 0.33 0.28 0.25 0.27 0.28 0.27 0.30 0.34 0.35 0.32 0.39 0.47 0.49 0.55 0.53 0.52 0.52 0.52 0.53 0.56 0.54 0.51 0.47 0.45 0.44 0.42 0.38 0.33 0.28 0.25 0.22 0.22 0.20 0.18
0.48 0.51 0.58 0.61 0.63 0.59 0.58 0.61 0.56 0.51 0.47 0.41 0.38 0.34 0.32 0.34 0.35 0.40 0.40 0.42 0.50 0.55 0.57 0.53 0.51 0.52 0.52 0.55 0.58 0.59 0.59 0.57 0.54 0.51 0.50 0.48 0.44 0.37 0.32 0.30 0.29 0.29 0.25
0.76 0.84 0.91 0.96 0.97 0.94 0.91 0.85 0.83 0.76 0.76 0.68 0.55 0.45 0.39 0.37 0.42 0.40 0.37 0.37 0.39 0.48 0.50 0.48 0.46 0.46 0.45 0.45 0.49 0.56 0.62 0.64 0.60 0.55 0.54 0.55 0.55 0.49 0.41 0.37 0.34 0.32 0.30
1.20 1.22 1.23 1.30 1.30 1.30 1.23 1.15 1.06 0.91 0.83 0.72 0.57 0.48 0.44 0.40 0.38 0.36 0.31 0.28 0.28 0.30 0.31 0.32 0.33 0.34 0.35 0.37 0.42 0.46 0.54 0.62 0.65 0.62 0.57 0.59 0.60 0.54 0.48 0.43 0.41 0.39 0.37
1.88 1.82 1.79 1.73 1.61 1.53 1.42 1.27 1.11 0.98 0.86 0.71 0.60 0.50 0.39 0.31 0.28 0.26 0.24 0.21 0.21 0.22 0.22 0.23 0.26 0.28 0.30 0.32 0.34 0.36 0.41 0.49 0.58 0.57 0.54 0.58 0.61 0.57 0.52 0.49 0.47 0.45 0.46
2.66 2.48 2.29 2.02 1.77 1.62 1.50 1.34 1.15 1.00 0.86 0.71 0.61 0.55 0.43 0.31 0.23 0.17 0.17 0.17 0.16 0.17 0.17 0.16 0.18 0.20 0.20 0.17 0.19 0.28 0.33 0.32 0.34 0.41 0.51 0.58 0.58 0.56 0.56 0.56 0.55 0.54 0.53
2.94 2.69 2.36 2.07 1.88 1.73 1.56 1.40 1.19 1.04 0.85 0.65 0.52 0.50 0.46 0.37 0.25 0.15 0.10 0.08 0.08 0.08 0.09 0.08 0.09 0.09 0.10 0.11 0.13 0.19 0.26 0.28 0.26 0.28 0.41 0.53 0.56 0.56 0.58 0.60 0.61 0.64 0.66
2.62 2.29 2.08 1.94 1.79 1.63 1.48 1.26 1.01 0.83 0.69 0.56 0.47 0.41 0.36 0.30 0.26 0.19 0.12 0.08 0.07 0.07 0.07 0.07 0.07 0.07 0.07 0.08 0.10 0.12 0.16 0.18 0.21 0.22 0.27 0.34 0.39 0.42 0.46 0.50 0.57 0.63 0.67
2.15 1.90 1.72 1.63 1.54 1.34 1.11 0.86 0.66 0.55 0.46 0.39 0.32 0.28 0.26 0.22 0.19 0.20 0.17 0.11 0.08 0.07 0.06 0.06 0.07 0.07 0.08 0.08 0.09 0.11 0.15 0.16 0.19 0.21 0.23 0.26 0.30 0.35 0.39 0.45 0.53 0.63 0.70
1.72 1.48 1.22 1.04 0.89 0.73 0.55 0.43 0.36 0.32 0.29 0.25 0.20 0.18 0.17 0.17 0.16 0.16 0.16 0.11 0.08 0.06 0.06 0.05 0.05 0.05 0.05 0.05 0.07 0.11 0.14 0.17 0.18 0.19 0.18 0.17 0.19 0.21 0.27 0.35 0.45 0.54 0.65
1.16 0.95 0.75 0.61 0.48 0.38 0.32 0.28 0.24 0.21 0.17 0.15 0.14 0.13 0.11 0.10 0.10 0.11 0.13 0.11 0.09 0.05 0.03 0.03 0.02 0.02 0.02 0.03 0.06 0.11 0.17 0.15 0.15 0.14 0.13 0.12 0.11 0.11 0.13 0.17 0.25 0.35 0.47
0.64 0.52 0.42 0.34 0.27 0.22 0.17 0.13 0.11 0.09 0.09 0.09 0.08 0.09 0.09 0.08 0.09 0.11 0.14 0.17 0.16 0.10 0.05 0.03 0.02 0.02 0.02 0.06 0.13 0.17 0.22 0.14 0.11 0.09 0.08 0.06 0.06 0.06 0.08 0.09 0.12 0.16 0.23
0.34 0.27 0.21 0.17 0.12 0.10 0.09 0.08 0.07 0.07 0.08 0.09 0.09 0.09 0.09 0.09 0.10 0.11 0.12 0.16 0.21 0.20 0.12 0.05 0.04 0.04 0.07 0.15 0.26 0.29 0.29 0.21 0.14 0.10 0.07 0.06 0.05 0.06 0.06 0.07 0.08 0.10 0.12
0.17 0.14 0.12 0.10 0.09 0.08 0.07 0.07 0.08 0.08 0.09 0.09 0.10 0.11 0.10 0.10 0.10 0.10 0.10 0.13 0.19 0.27 0.23 0.09 0.04 0.05 0.10 0.16 0.30 0.34 0.37 0.33 0.24 0.16 0.11 0.08 0.07 0.07 0.08 0.10 0.11 0.12 0.15
0.11 0.10 0.09 0.09 0.09 0.09 0.08 0.09 0.10 0.10 0.09 0.09 0.08 0.09 0.09 0.09 0.10 0.10 0.10 0.12 0.14 0.21 0.25 0.13 0.06 0.07 0.14 0.22 0.29 0.32 0.32 0.31 0.27 0.25 0.18 0.15 0.13 0.11 0.11 0.12 0.14 0.17 0.21
0.09 0.09 0.09 0.09 0.08 0.07 0.08 0.09 0.09 0.09 0.09 0.09 0.08 0.08 0.08 0.08 0.09 0.09 0.10 0.11 0.14 0.20 0.29 0.24 0.13 0.09 0.12 0.19 0.26 0.28 0.24 0.23 0.26 0.28 0.22 0.16 0.13 0.13 0.18 0.15 0.13 0.16 0.22
0.09 0.09 0.08 0.07 0.07 0.07 0.08 0.08 0.07 0.06 0.06 0.07 0.07 0.08 0.09 0.10 0.09 0.11 0.14 0.15 0.18 0.22 0.30 0.33 0.21 0.16 0.17 0.24 0.35 0.35 0.30 0.38 0.31 0.26 0.22 0.17 0.16 0.17 0.40 0.46 0.22 0.18 0.21
0.10 0.09 0.08 0.07 0.07 0.07 0.06 0.04 0.04 0.04 0.04 0.05 0.06 0.09 0.10 0.11 0.13 0.18 0.19 0.22 0.27 0.31 0.32 0.35 0.28 0.21 0.23 0.29 0.41 0.48 0.44 0.42 0.38 0.24 0.27 0.24 0.22 0.28 0.65 1.20 0.67 0.35 0.29
0.10 0.09 0.08 0.07 0.06 0.04 0.02 0.01 0.01 0.01 0.03 0.04 0.06 0.09 0.11 0.11 0.16 0.19 0.19 0.24 0.32 0.38 0.40 0.42 0.36 0.30 0.28 0.37 0.47 0.51 0.48 0.45 0.38 0.32 0.38 0.33 0.49 0.82 1.34 1.99 1.53 0.88 0.63
0.11 0.08 0.05 0.04 0.03 0.02 0.01 0.01 0.01 0.01 0.02 0.05 0.09 0.10 0.08 0.07 0.08 0.09 0.14 0.21 0.30 0.39 0.46 0.51 0.48 0.44 0.37 0.44 0.55 0.58 0.59 0.57 0.45 0.32 0.37 0.38 0.68 1.41 2.11 2.52 2.10 1.31 0.98
0.08 0.07 0.05 0.04 0.05 0.03 0.00 0.00 0.00 0.01 0.04 0.09 0.12 0.12 0.09 0.08 0.12 0.17 0.17 0.17 0.25 0.33 0.46 0.59 0.61 0.52 0.49 0.54 0.67 0.72 0.66 0.65 0.60 0.43 0.46 0.47 0.81 1.66 2.04 2.29 2.11 1.44 1.14
0.07 0.06 0.05 0.05 0.07 0.04 0.00 0.00 0.00 0.01 0.06 0.09 0.10 0.12 0.15 0.18 0.16 0.13 0.14 0.22 0.32 0.42 0.48 0.54 0.61 0.55 0.53 0.55 0.63 0.67 0.64 0.62 0.51 0.45 0.53 0.62 0.90 1.53 1.68 1.83 1.93 1.50 1.22
0.06 0.05 0.04 0.05 0.08 0.07 0.01 0.00 0.00 0.02 0.05 0.07 0.09 0.11 0.12 0.17 0.13 0.12 0.19 0.31 0.39 0.52 0.60 0.73 0.73 0.67 0.66 0.65 0.56 0.53 0.63 0.71 0.62 0.44 0.48 0.62 0.85 1.20 1.33 1.47 1.54 1.45 1.33
0.06 0.05 0.05 0.06 0.08 0.09 0.02 0.00 0.01 0.03 0.05 0.06 0.10 0.14 0.13 0.11 0.11 0.15 0.22 0.38 0.54 0.62 0.79 0.99 0.94 0.87 0.82 0.78 0.66 0.59 0.71 0.83 0.78 0.59 0.49 0.57 0.73 0.92 1.14 1.24 1.20 1.18 1.27

GEFSMA_prec_meanprecacc_096.txt.gz
Total_Precipitation_Accumulation
0.28 0.25 0.23 0.25 0.28 0.35 0.40 0.38 0.32 0.23 0.18 0.16 0.12 0.13 0.14 0.12 0.14 0.20 0.25 0.27 0.27 0.37 0.51 0.56 0.56 0.55 0.54 0.50 0.45 0.41 0.37 0.34 0.32 0.29 0.23 0.21 0.19 0.19 0.19 0.18 0.19 0.20 0.21
0.35 0.35 0.35 0.38 0.35 0.36 0.41 0.44 0.39 0.31 0.23 0.20 0.19 0.20 0.21 0.18 0.18 0.25 0.32 0.38 0.36 0.39 0.52 0.62 0.65 0.65 0.67 0.67 0.64 0.55 0.50 0.46 0.44 0.41 0.36 0.30 0.25 0.24 0.24 0.22 0.19 0.18 0.18
0.51 0.49 0.55 0.59 0.52 0.46 0.44 0.44 0.43 0.39 0.33 0.29 0.31 0.30 0.29 0.32 0.36 0.36 0.34 0.43 0.51 0.52 0.58 0.59 0.61 0.65 0.66 0.69 0.72 0.66 0.62 0.56 0.54 0.53 0.50 0.44 0.37 0.32 0.29 0.26 0.26 0.24 0.22
0.73 0.78 0.80 0.79 0.77 0.71 0.69 0.71 0.67 0.62 0.56 0.47 0.42 0.36 0.34 0.36 0.37 0.41 0.42 0.44 0.54 0.60 0.62 0.57 0.57 0.59 0.62 0.67 0.70 0.70 0.71 0.68 0.64 0.59 0.57 0.56 0.51 0.43 0.37 0.34 0.33 0.33 0.29
1.03 1.12 1.17 1.15 1.14 1.10 1.06 0.98 0.96 0.88 0.86 0.75 0.60 0.49 0.41 0.39 0.44 0.42 0.39 0.39 0.42 0.52 0.56 0.53 0.50 0.49 0.50 0.51 0.56 0.64 0.73 0.74 0.70 0.65 0.63 0.64 0.62 0.56 0.48 0.44 0.40 0.37 0.35
1.53 1.49 1.49 1.54 1.51 1.49 1.39 1.29 1.18 1.01 0.90 0.79 0.62 0.52 0.46 0.43 0.40 0.37 0.33 0.29 0.29 0.31 0.34 0.35 0.39 0.39 0.39 0.42 0.46 0.52 0.61 0.72 0.76 0.73 0.68 0.70 0.70 0.64 0.55 0.50 0.47 0.45 0.43
2.17 2.11 2.05 1.95 1.80 1.71 1.60 1.42 1.23 1.07 0.94 0.78 0.67 0.55 0.41 0.33 0.29 0.28 0.26 0.23 0.23 0.23 0.22 0.24 0.28 0.32 0.33 0.34 0.36 0.41 0.50 0.63 0.73 0.71 0.66 0.70 0.72 0.67 0.61 0.57 0.53 0.50 0.50
2.90 2.71 2.51 2.21 1.93 1.78 1.65 1.47 1.25 1.08 0.92 0.77 0.69 0.64 0.48 0.34 0.24 0.19 0.18 0.18 0.18 0.18 0.17 0.16 0.19 0.21 0.21 0.20 0.22 0.32 0.38 0.40 0.43 0.50 0.59 0.67 0.67 0.66 0.66 0.65 0.63 0.62 0.60
3.15 2.90 2.55 2.25 2.03 1.86 1.68 1.52 1.31 1.14 0.92 0.70 0.58 0.58 0.55 0.44 0.27 0.17 0.11 0.09 0.08 0.09 0.10 0.09 0.10 0.10 0.11 0.13 0.16 0.22 0.30 0.34 0.33 0.36 0.47 0.58 0.61 0.62 0.65 0.67 0.69 0.72 0.74
2.83 2.49 2.25 2.11 1.92 1.74 1.57 1.35 1.11 0.93 0.77 0.62 0.52 0.45 0.42 0.36 0.30 0.22 0.13 0.09 0.08 0.08 0.08 0.08 0.08 0.08 0.09 0.11 0.13 0.14 0.18 0.21 0.24 0.25 0.31 0.37 0.42 0.46 0.49 0.54 0.62 0.69 0.75
2.34 2.08 1.88 1.80 1.68 1.46 1.20 0.94 0.74 0.63 0.52 0.45 0.37 0.32 0.29 0.26 0.23 0.23 0.19 0.12 0.09 0.08 0.07 0.07 0.08 0.09 0.10 0.12 0.12 0.14 0.17 0.17 0.19 0.22 0.24 0.27 0.31 0.36 0.41 0.46 0.55 0.65 0.74
1.86 1.59 1.31 1.13 0.98 0.81 0.64 0.51 0.43 0.38 0.34 0.31 0.26 0.23 0.21 0.21 0.20 0.19 0.19 0.13 0.10 0.07 0.06 0.06 0.06 0.06 0.06 0.07 0.09 0.13 0.15 0.18 0.19 0.19 0.18 0.18 0.19 0.22 0.27 0.36 0.46 0.55 0.67
1.26 1.03 0.82 0.66 0.52 0.42 0.36 0.32 0.28 0.25 0.21 0.19 0.17 0.16 0.15 0.14 0.13 0.14 0.16 0.14 0.11 0.07 0.05 0.03 0.03 0.03 0.03 0.04 0.07 0.12 0.18 0.16 0.15 0.14 0.13 0.12 0.11 0.11 0.13 0.17 0.25 0.36 0.48
0.72 0.57 0.46 0.37 0.30 0.24 0.19 0.15 0.12 0.11 0.10 0.10 0.09 0.10 0.10 0.09 0.11 0.12 0.16 0.18 0.17 0.11 0.06 0.04 0.02 0.03 0.04 0.08 0.15 0.18 0.22 0.14 0.11 0.09 0.08 0.06 0.06 0.06 0.08 0.09 0.12 0.16 0.23
0.42 0.32 0.24 0.19 0.14 0.12 0.10 0.08 0.08 0.08 0.09 0.09 0.09 0.09 0.10 0.10 0.10 0.11 0.12 0.16 0.22 0.20 0.12 0.05 0.04 0.05 0.09 0.17 0.30 0.32 0.30 0.21 0.15 0.10 0.07 0.06 0.05 0.06 0.06 0.07 0.08 0.10 0.12
0.25 0.20 0.16 0.13 0.11 0.09 0.09 0.09 0.08 0.08 0.09 0.10 0.10 0.11 0.10 0.10 0.10 0.10 0.11 0.13 0.19 0.27 0.23 0.09 0.05 0.06 0.11 0.17 0.32 0.36 0.38 0.34 0.24 0.16 0.11 0.08 0.07 0.07 0.08 0.10 0.11 0.12 0.15
0.19 0.16 0.14 0.12 0.11 0.10 0.09 0.10 0.11 0.10 0.10 0.09 0.09 0.09 0.09 0.09 0.10 0.10 0.11 0.12 0.14 0.21 0.25 0.13 0.07 0.07 0.14 0.22 0.30 0.33 0.33 0.31 0.28 0.25 0.18 0.15 0.13 0.11 0.11 0.12 0.14 0.17 0.21
0.15 0.14 0.13 0.11 0.09 0.08 0.08 0.09 0.10 0.09 0.10 0.09 0.08 0.08 0.08 0.08 0.09 0.09 0.10 0.12 0.14 0.20 0.29 0.25 0.13 0.09 0.13 0.19 0.26 0.29 0.25 0.24 0.26 0.29 0.22 0.16 0.13 0.13 0.18 0.15 0.13 0.16 0.22
0.12 0.11 0.09 0.09 0.08 0.08 0.09 0.08 0.08 0.07 0.07 0.07 0.08 0.08 0.09 0.10 0.10 0.11 0.14 0.15 0.18 0.22 0.30 0.33 0.21 0.16 0.17 0.24 0.35 0.35 0.30 0.38 0.31 0.26 0.22 0.18 0.16 0.17 0.40 0.46 0.22 0.18 0.21
0.11 0.10 0.09 0.08 0.07 0.08 0.07 0.05 0.04 0.04 0.05 0.05 0.06 0.09 0.11 0.12 0.14 0.18 0.19 0.23 0.28 0.31 0.32 0.35 0.28 0.22 0.24 0.29 0.41 0.48 0.45 0.42 0.38 0.24 0.27 0.24 0.22 0.28 0.65 1.20 0.67 0.35 0.29
0.11 0.10 0.09 0.07 0.06 0.05 0.02 0.01 0.01 0.02 0.03 0.04 0.06 0.10 0.11 0.11 0.16 0.19 0.19 0.24 0.32 0.39 0.41 0.43 0.37 0.31 0.29 0.38 0.47 0.51 0.49 0.46 0.39 0.32 0.38 0.34 0.49 0.83 1.35 2.00 1.54 0.88 0.63
0.12 0.08 0.06 0.04 0.03 0.02 0.01 0.01 0.01 0.01 0.03 0.06 0.09 0.11 0.09 0.08 0.09 0.09 0.14 0.21 0.30 0.39 0.47 0.52 0.50 0.46 0.39 0.45 0.56 0.59 0.59 0.58 0.46 0.33 0.38 0.39 0.69 1.43 2.13 2.53 2.11 1.31 0.98
0.09 0.07 0.05 0.04 0.05 0.03 0.00 0.00 0.00 0.01 0.04 0.09 0.13 0.12 0.09 0.08 0.12 0.17 0.17 0.18 0.26 0.33 0.46 0.60 0.63 0.55 0.52 0.56 0.69 0.73 0.68 0.67 0.61 0.45 0.47 0.49 0.83 1.69 2.05 2.29 2.11 1.44 1.14
0.08 0.07 0.06 0.05 0.07 0.04 0.00 0.00 0.00 0.02 0.07 0.10 0.11 0.13 0.16 0.20 0.16 0.14 0.14 0.22 0.33 0.43 0.49 0.54 0.62 0.57 0.54 0.56 0.64 0.68 0.65 0.63 0.53 0.48 0.54 0.63 0.92 1.56 1.70 1.85 1.93 1.50 1.22
0.08 0.06 0.05 0.06 0.09 0.07 0.01 0.00 0.00 0.03 0.06 0.08 0.09 0.11 0.13 0.18 0.13 0.12 0.19 0.32 0.41 0.54 0.60 0.73 0.73 0.67 0.66 0.65 0.56 0.53 0.65 0.73 0.65 0.47 0.49 0.64 0.87 1.22 1.35 1.50 1.56 1.46 1.34
0.08 0.06 0.06 0.07 0.09 0.09 0.02 0.00 0.01 0.03 0.06 0.07 0.11 0.15 0.13 0.11 0.11 0.15 0.23 0.40 0.56 0.64 0.80 1.00 0.95 0.89 0.83 0.79 0.67 0.60 0.74 0.85 0.81 0.63 0.51 0.60 0.76 0.95 1.16 1.27 1.23 1.21 1.30

GEFSMA_prec_meanprecacc_102.txt.gz
Total_Precipitation_Accumulation
0.56 0.52 0.47 0.46 0.46 0.52 0.51 0.47 0.38 0.27 0.21 0.17 0.13 0.14 0.15 0.15 0.18 0.27 0.36 0.33 0.29 0.39 0.54 0.60 0.60 0.61 0.60 0.56 0.51 0.48 0.45 0.43 0.40 0.35 0.28 0.25 0.23 0.22 0.23 0.22 0.22 0.23 0.25
0.77 0.73 0.70 0.68 0.55 0.56 0.56 0.54 0.44 0.36 0.27 0.24 0.22 0.22 0.23 0.21 0.22 0.30 0.40 0.43 0.38 0.41 0.54 0.67 0.73 0.73 0.74 0.75 0.71 0.61 0.58 0.55 0.53 0.48 0.41 0.34 0.29 0.27 0.28 0.25 0.23 0.22 0.22
1.03 1.01 1.02 0.97 0.76 0.64 0.64 0.59 0.54 0.48 0.40 0.35 0.37 0.34 0.32 0.35 0.40 0.43 0.45 0.56 0.60 0.56 0.61 0.63 0.66 0.70 0.72 0.77 0.80 0.75 0.71 0.65 0.61 0.59 0.56 0.50 0.42 0.37 0.33 0.29 0.29 0.27 0.25
1.21 1.30 1.28 1.18 1.07 0.95 0.92 0.94 0.84 0.75 0.69 0.58 0.53 0.44 0.41 0.43 0.42 0.49 0.52 0.56 0.68 0.72 0.68 0.60 0.60 0.63 0.67 0.73 0.77 0.78 0.78 0.74 0.69 0.65 0.62 0.61 0.57 0.48 0.41 0.37 0.36 0.35 0.31
1.48 1.56 1.59 1.56 1.47 1.40 1.31 1.18 1.17 1.05 1.04 0.90 0.70 0.59 0.49 0.47 0.52 0.51 0.49 0.49 0.53 0.63 0.64 0.58 0.53 0.53 0.53 0.56 0.60 0.70 0.78 0.78 0.73 0.69 0.68 0.69 0.67 0.60 0.52 0.47 0.43 0.40 0.37
1.88 1.90 1.88 1.87 1.84 1.81 1.70 1.55 1.42 1.23 1.11 0.97 0.75 0.67 0.61 0.53 0.49 0.46 0.40 0.37 0.36 0.37 0.41 0.46 0.49 0.44 0.42 0.44 0.49 0.56 0.64 0.75 0.81 0.79 0.74 0.77 0.76 0.69 0.61 0.55 0.52 0.50 0.47
2.43 2.39 2.36 2.26 2.13 2.04 1.89 1.69 1.48 1.30 1.14 0.97 0.90 0.78 0.61 0.44 0.37 0.35 0.32 0.29 0.28 0.28 0.28 0.32 0.37 0.40 0.39 0.37 0.38 0.43 0.53 0.67 0.77 0.76 0.71 0.75 0.77 0.73 0.67 0.63 0.59 0.55 0.55
3.14 2.95 2.79 2.52 2.24 2.10 1.96 1.75 1.50 1.32 1.13 0.95 0.91 0.86 0.68 0.46 0.32 0.24 0.22 0.22 0.21 0.21 0.20 0.20 0.25 0.28 0.28 0.24 0.24 0.33 0.39 0.41 0.45 0.53 0.63 0.71 0.72 0.71 0.71 0.70 0.69 0.67 0.65
3.31 3.06 2.73 2.48 2.27 2.09 1.92 1.76 1.53 1.37 1.13 0.88 0.77 0.79 0.76 0.61 0.38 0.22 0.15 0.13 0.14 0.14 0.13 0.12 0.13 0.13 0.14 0.16 0.18 0.23 0.32 0.36 0.34 0.37 0.48 0.60 0.63 0.64 0.67 0.70 0.73 0.76 0.79
3.03 2.65 2.40 2.28 2.11 1.92 1.76 1.54 1.28 1.12 0.98 0.81 0.69 0.65 0.60 0.53 0.43 0.30 0.18 0.13 0.12 0.12 0.12 0.11 0.10 0.09 0.11 0.13 0.15 0.16 0.19 0.22 0.25 0.26 0.31 0.38 0.44 0.47 0.51 0.57 0.66 0.74 0.80
2.58 2.32 2.08 1.99 1.86 1.63 1.36 1.10 0.91 0.79 0.70 0.63 0.54 0.46 0.40 0.36 0.33 0.32 0.26 0.16 0.12 0.10 0.09 0.09 0.09 0.10 0.11 0.13 0.13 0.15 0.18 0.18 0.20 0.23 0.25 0.28 0.33 0.38 0.43 0.49 0.58 0.68 0.77
2.11 1.84 1.54 1.32 1.15 0.96 0.79 0.66 0.57 0.51 0.47 0.44 0.39 0.33 0.30 0.28 0.26 0.26 0.25 0.19 0.13 0.10 0.09 0.08 0.07 0.07 0.07 0.08 0.10 0.15 0.16 0.18 0.19 0.19 0.18 0.18 0.19 0.22 0.28 0.37 0.47 0.57 0.68
1.48 1.22 0.98 0.82 0.68 0.56 0.48 0.43 0.39 0.35 0.31 0.29 0.26 0.23 0.21 0.20 0.18 0.18 0.20 0.18 0.15 0.11 0.08 0.06 0.05 0.05 0.05 0.06 0.09 0.14 0.19 0.16 0.15 0.14 0.13 0.12 0.11 0.11 0.13 0.17 0.25 0.36 0.49
0.94 0.76 0.60 0.50 0.43 0.37 0.30 0.24 0.19 0.17 0.15 0.15 0.13 0.14 0.13 0.12 0.13 0.15 0.18 0.21 0.21 0.15 0.10 0.07 0.05 0.05 0.06 0.09 0.17 0.21 0.23 0.14 0.12 0.09 0.08 0.06 0.06 0.06 0.08 0.09 0.12 0.17 0.24
0.64 0.51 0.40 0.32 0.26 0.22 0.19 0.16 0.13 0.12 0.12 0.12 0.12 0.11 0.12 0.11 0.12 0.13 0.14 0.18 0.24 0.23 0.15 0.08 0.07 0.07 0.10 0.18 0.32 0.34 0.31 0.22 0.15 0.10 0.07 0.06 0.05 0.06 0.06 0.07 0.08 0.10 0.12
0.40 0.34 0.29 0.24 0.21 0.19 0.17 0.16 0.14 0.13 0.12 0.12 0.12 0.12 0.11 0.10 0.10 0.10 0.11 0.14 0.20 0.28 0.24 0.10 0.06 0.07 0.12 0.17 0.33 0.37 0.39 0.34 0.24 0.16 0.11 0.08 0.07 0.07 0.08 0.10 0.11 0.12 0.15
0.29 0.26 0.24 0.21 0.19 0.17 0.16 0.16 0.16 0.14 0.13 0.11 0.10 0.10 0.10 0.09 0.10 0.10 0.11 0.12 0.15 0.22 0.26 0.14 0.07 0.08 0.15 0.23 0.30 0.33 0.34 0.32 0.28 0.26 0.18 0.15 0.13 0.11 0.11 0.12 0.14 0.17 0.21
0.27 0.25 0.24 0.22 0.19 0.17 0.16 0.15 0.14 0.13 0.12 0.11 0.10 0.10 0.09 0.09 0.10 0.09 0.11 0.12 0.14 0.21 0.29 0.25 0.14 0.10 0.13 0.20 0.26 0.29 0.25 0.24 0.27 0.29 0.22 0.16 0.13 0.13 0.18 0.15 0.13 0.16 0.22
0.23 0.21 0.19 0.19 0.19 0.18 0.17 0.15 0.12 0.10 0.10 0.09 0.09 0.10 0.10 0.11 0.10 0.12 0.14 0.16 0.19 0.22 0.31 0.33 0.22 0.17 0.18 0.25 0.36 0.35 0.30 0.38 0.31 0.26 0.22 0.18 0.16 0.17 0.40 0.46 0.22 0.18 0.21
0.18 0.16 0.15 0.14 0.14 0.13 0.12 0.09 0.07 0.06 0.06 0.06 0.07 0.10 0.12 0.13 0.15 0.19 0.20 0.24 0.29 0.32 0.33 0.36 0.29 0.23 0.26 0.30 0.43 0.50 0.46 0.43 0.38 0.24 0.27 0.24 0.23 0.28 0.65 1.20 0.67 0.35 0.29
0.15 0.14 0.13 0.12 0.09 0.07 0.04 0.02 0.02 0.03 0.04 0.06 0.07 0.10 0.11 0.12 0.17 0.19 0.20 0.25 0.33 0.40 0.42 0.45 0.40 0.34 0.33 0.42 0.50 0.53 0.50 0.47 0.41 0.33 0.39 0.35 0.50 0.84 1.36 2.00 1.54 0.88 0.63
0.15 0.12 0.09 0.07 0.05 0.03 0.02 0.02 0.01 0.02 0.04 0.08 0.11 0.12 0.09 0.08 0.09 0.10 0.14 0.21 0.31 0.40 0.48 0.55 0.53 0.51 0.45 0.50 0.59 0.61 0.61 0.60 0.49 0.35 0.39 0.41 0.70 1.45 2.15 2.54 2.11 1.31 0.98
0.11 0.10 0.07 0.06 0.06 0.04 0.01 0.01 0.01 0.02 0.07 0.12 0.15 0.15 0.11 0.09 0.13 0.18 0.17 0.18 0.27 0.33 0.46 0.60 0.65 0.59 0.56 0.60 0.71 0.75 0.70 0.70 0.66 0.48 0.50 0.54 0.86 1.72 2.07 2.29 2.11 1.44 1.14
0.10 0.10 0.08 0.07 0.08 0.04 0.00 0.00 0.01 0.04 0.10 0.12 0.13 0.15 0.20 0.23 0.17 0.14 0.15 0.26 0.37 0.45 0.50 0.55 0.64 0.59 0.56 0.57 0.64 0.68 0.67 0.68 0.62 0.55 0.58 0.68 0.97 1.59 1.72 1.86 1.93 1.50 1.22
0.11 0.09 0.08 0.09 0.11 0.08 0.01 0.00 0.01 0.05 0.09 0.10 0.10 0.12 0.14 0.20 0.14 0.12 0.21 0.38 0.47 0.59 0.61 0.73 0.73 0.67 0.66 0.65 0.56 0.54 0.68 0.79 0.73 0.54 0.52 0.67 0.92 1.26 1.39 1.54 1.57 1.46 1.34
0.11 0.08 0.08 0.10 0.11 0.10 0.02 0.00 0.01 0.05 0.10 0.11 0.15 0.18 0.14 0.11 0.11 0.15 0.24 0.44 0.60 0.67 0.82 1.01 0.97 0.91 0.85 0.80 0.67 0.61 0.79 0.91 0.87 0.69 0.56 0.63 0.80 0.98 1.21 1.31 1.26 1.23 1.32

GEFSMA_prec_meanprecacc_108.txt.gz
Total_Precipitation_Accumulation
0.69 0.64 0.62 0.63 0.63 0.67 0.63 0.57 0.46 0.35 0.29 0.26 0.23 0.24 0.28 0.28 0.32 0.37 0.43 0.39 0.34 0.45 0.60 0.66 0.65 0.65 0.64 0.59 0.54 0.51 0.48 0.47 0.44 0.39 0.32 0.28 0.26 0.25 0.24 0.24 0.24 0.25 0.26
0.98 0.92 0.91 0.92 0.83 0.81 0.81 0.74 0.61 0.54 0.43 0.37 0.36 0.37 0.37 0.34 0.37 0.41 0.49 0.48 0.43 0.46 0.60 0.72 0.79 0.80 0.80 0.79 0.74 0.65 0.61 0.59 0.57 0.52 0.46 0.38 0.33 0.30 0.30 0.27 0.24 0.23 0.23
1.25 1.19 1.22 1.25 1.08 1.01 1.05 1.05 0.86 0.74 0.65 0.56 0.56 0.50 0.46 0.50 0.53 0.56 0.61 0.64 0.64 0.61 0.66 0.67 0.71 0.75 0.77 0.80 0.84 0.79 0.75 0.69 0.64 0.62 0.59 0.52 0.45 0.39 0.35 0.31 0.31 0.29 0.26
1.44 1.51 1.47 1.40 1.32 1.27 1.35 1.44 1.22 1.07 0.98 0.85 0.79 0.64 0.58 0.57 0.54 0.59 0.64 0.64 0.75 0.77 0.72 0.63 0.64 0.67 0.70 0.77 0.81 0.82 0.81 0.77 0.71 0.66 0.63 0.62 0.58 0.49 0.42 0.39 0.37 0.36 0.33
1.71 1.78 1.79 1.75 1.68 1.63 1.64 1.55 1.51 1.32 1.31 1.17 0.93 0.78 0.70 0.67 0.67 0.64 0.62 0.62 0.64 0.70 0.69 0.62 0.57 0.55 0.56 0.59 0.64 0.73 0.81 0.80 0.75 0.70 0.68 0.70 0.69 0.62 0.53 0.49 0.45 0.41 0.39
2.14 2.14 2.09 2.12 2.14 2.13 1.97 1.85 1.73 1.50 1.34 1.20 0.97 0.86 0.82 0.78 0.70 0.63 0.55 0.52 0.50 0.46 0.47 0.53 0.55 0.48 0.45 0.48 0.52 0.58 0.67 0.76 0.83 0.81 0.76 0.79 0.79 0.71 0.63 0.57 0.54 0.51 0.48
2.74 2.67 2.61 2.50 2.37 2.27 2.11 1.91 1.74 1.56 1.38 1.15 1.08 0.93 0.76 0.66 0.58 0.50 0.44 0.40 0.37 0.34 0.32 0.36 0.43 0.45 0.42 0.40 0.42 0.47 0.56 0.69 0.80 0.79 0.74 0.77 0.79 0.75 0.69 0.64 0.60 0.57 0.56
3.42 3.26 3.09 2.80 2.48 2.31 2.19 1.96 1.71 1.54 1.34 1.11 1.06 1.01 0.81 0.61 0.48 0.38 0.34 0.32 0.29 0.26 0.24 0.23 0.28 0.31 0.31 0.27 0.27 0.37 0.42 0.44 0.47 0.55 0.65 0.73 0.73 0.72 0.73 0.72 0.71 0.70 0.67
3.55 3.29 2.95 2.69 2.47 2.28 2.12 1.97 1.74 1.58 1.33 1.06 0.91 0.93 0.90 0.75 0.51 0.36 0.27 0.22 0.20 0.18 0.16 0.14 0.15 0.16 0.18 0.19 0.20 0.25 0.34 0.38 0.36 0.38 0.50 0.61 0.64 0.65 0.68 0.71 0.75 0.78 0.82
3.19 2.79 2.53 2.44 2.25 2.08 1.92 1.70 1.45 1.30 1.17 1.01 0.87 0.80 0.73 0.65 0.54 0.42 0.30 0.21 0.17 0.16 0.15 0.14 0.13 0.11 0.13 0.15 0.17 0.18 0.21 0.24 0.26 0.27 0.32 0.39 0.44 0.48 0.51 0.58 0.67 0.75 0.82
2.73 2.45 2.22 2.17 2.03 1.77 1.51 1.24 1.03 0.92 0.85 0.79 0.71 0.65 0.59 0.50 0.43 0.40 0.34 0.23 0.17 0.13 0.12 0.12 0.13 0.13 0.12 0.14 0.14 0.16 0.19 0.19 0.21 0.23 0.25 0.28 0.33 0.38 0.43 0.49 0.58 0.69 0.78
2.26 1.98 1.72 1.53 1.37 1.15 0.95 0.79 0.69 0.63 0.59 0.55 0.51 0.47 0.45 0.42 0.38 0.35 0.33 0.26 0.20 0.15 0.12 0.10 0.10 0.11 0.11 0.10 0.11 0.16 0.17 0.19 0.20 0.20 0.19 0.18 0.19 0.22 0.28 0.37 0.47 0.57 0.69
1.63 1.37 1.18 1.02 0.88 0.74 0.64 0.56 0.51 0.48 0.42 0.38 0.35 0.32 0.31 0.29 0.26 0.25 0.26 0.25 0.20 0.15 0.11 0.09 0.07 0.07 0.08 0.09 0.11 0.16 0.20 0.17 0.16 0.15 0.13 0.12 0.11 0.11 0.13 0.17 0.25 0.36 0.49
1.09 0.94 0.82 0.73 0.62 0.54 0.49 0.42 0.35 0.29 0.26 0.25 0.22 0.21 0.21 0.20 0.20 0.21 0.24 0.26 0.25 0.19 0.13 0.10 0.08 0.07 0.08 0.11 0.19 0.22 0.24 0.15 0.12 0.10 0.08 0.06 0.06 0.06 0.08 0.09 0.12 0.17 0.24
0.73 0.62 0.54 0.50 0.45 0.40 0.36 0.30 0.25 0.21 0.21 0.22 0.20 0.18 0.17 0.16 0.16 0.16 0.18 0.21 0.27 0.26 0.18 0.10 0.09 0.10 0.12 0.20 0.33 0.35 0.31 0.22 0.15 0.10 0.07 0.06 0.05 0.06 0.06 0.07 0.08 0.10 0.12
0.46 0.40 0.35 0.32 0.30 0.28 0.26 0.24 0.22 0.20 0.19 0.19 0.18 0.17 0.15 0.13 0.13 0.13 0.14 0.16 0.21 0.29 0.25 0.11 0.07 0.08 0.13 0.18 0.34 0.38 0.40 0.35 0.24 0.16 0.11 0.08 0.07 0.07 0.08 0.10 0.11 0.12 0.15
0.33 0.31 0.29 0.27 0.25 0.24 0.24 0.24 0.24 0.23 0.20 0.18 0.15 0.13 0.12 0.11 0.12 0.12 0.12 0.14 0.15 0.22 0.26 0.14 0.08 0.09 0.15 0.23 0.31 0.34 0.34 0.32 0.28 0.26 0.18 0.15 0.13 0.11 0.11 0.12 0.14 0.17 0.21
0.30 0.29 0.28 0.27 0.24 0.21 0.20 0.21 0.20 0.18 0.17 0.15 0.13 0.12 0.11 0.11 0.11 0.11 0.12 0.13 0.15 0.21 0.30 0.26 0.14 0.10 0.13 0.20 0.26 0.29 0.25 0.24 0.27 0.29 0.22 0.16 0.13 0.13 0.18 0.15 0.13 0.16 0.22
0.25 0.24 0.23 0.22 0.21 0.21 0.21 0.19 0.17 0.15 0.15 0.14 0.14 0.15 0.15 0.15 0.14 0.14 0.16 0.17 0.19 0.22 0.31 0.34 0.22 0.17 0.18 0.25 0.36 0.35 0.30 0.38 0.31 0.26 0.22 0.18 0.16 0.17 0.40 0.46 0.22 0.18 0.21
0.21 0.18 0.16 0.15 0.15 0.15 0.13 0.11 0.10 0.09 0.09 0.09 0.10 0.13 0.14 0.15 0.16 0.20 0.21 0.25 0.29 0.33 0.34 0.36 0.29 0.23 0.26 0.30 0.43 0.50 0.46 0.43 0.39 0.24 0.27 0.24 0.23 0.28 0.65 1.20 0.67 0.35 0.29
0.16 0.16 0.15 0.13 0.11 0.09 0.06 0.05 0.04 0.05 0.06 0.07 0.09 0.11 0.12 0.13 0.18 0.20 0.21 0.26 0.34 0.41 0.43 0.46 0.40 0.35 0.33 0.42 0.50 0.53 0.50 0.48 0.41 0.33 0.39 0.35 0.50 0.84 1.36 2.00 1.54 0.88 0.63
0.17 0.13 0.10 0.08 0.07 0.04 0.03 0.03 0.02 0.03 0.05 0.08 0.12 0.12 0.10 0.09 0.10 0.11 0.15 0.22 0.31 0.40 0.48 0.55 0.54 0.51 0.45 0.50 0.59 0.61 0.61 0.60 0.49 0.36 0.40 0.41 0.70 1.45 2.16 2.54 2.11 1.31 0.98
0.13 0.11 0.08 0.06 0.07 0.04 0.02 0.01 0.01 0.03 0.08 0.13 0.16 0.15 0.11 0.09 0.13 0.19 0.18 0.19 0.27 0.34 0.46 0.60 0.65 0.59 0.56 0.60 0.71 0.75 0.71 0.70 0.66 0.48 0.50 0.54 0.87 1.73 2.08 2.29 2.11 1.44 1.14
0.13 0.11 0.09 0.07 0.08 0.04 0.00 0.01 0.01 0.04 0.10 0.13 0.14 0.16 0.21 0.23 0.18 0.15 0.16 0.27 0.38 0.46 0.50 0.55 0.64 0.59 0.56 0.57 0.65 0.68 0.67 0.68 0.62 0.55 0.58 0.68 0.97 1.61 1.73 1.87 1.93 1.50 1.23
0.13 0.10 0.09 0.10 0.11 0.08 0.01 0.01 0.01 0.06 0.10 0.11 0.11 0.12 0.15 0.20 0.14 0.13 0.21 0.38 0.48 0.60 0.62 0.73 0.73 0.67 0.66 0.65 0.56 0.54 0.68 0.79 0.73 0.54 0.53 0.67 0.92 1.27 1.40 1.54 1.57 1.46 1.34
0.12 0.09 0.09 0.11 0.12 0.10 0.03 0.01 0.02 0.06 0.11 0.11 0.15 0.18 0.14 0.11 0.12 0.16 0.24 0.44 0.60 0.67 0.82 1.01 0.97 0.91 0.85 0.80 0.67 0.61 0.79 0.91 0.87 0.70 0.56 0.63 0.81 0.99 1.21 1.31 1.26 1.23 1.32

GEFSMA_prec_meanprecacc_114.txt.gz
Total_Precipitation_Accumulation
0.76 0.72 0.71 0.72 0.72 0.74 0.68 0.61 0.50 0.38 0.32 0.29 0.26 0.28 0.31 0.31 0.35 0.40 0.47 0.44 0.38 0.49 0.67 0.74 0.72 0.72 0.69 0.63 0.58 0.55 0.53 0.52 0.48 0.42 0.34 0.31 0.29 0.27 0.27 0.26 0.26 0.27 0.28
1.06 1.00 0.99 1.00 0.91 0.93 0.93 0.85 0.68 0.59 0.46 0.43 0.43 0.44 0.44 0.40 0.42 0.46 0.53 0.51 0.46 0.50 0.67 0.81 0.88 0.88 0.87 0.84 0.78 0.67 0.64 0.62 0.60 0.55 0.49 0.42 0.36 0.33 0.33 0.30 0.27 0.25 0.25
1.35 1.30 1.32 1.33 1.16 1.11 1.17 1.16 0.96 0.83 0.72 0.63 0.66 0.62 0.56 0.58 0.61 0.62 0.67 0.67 0.67 0.66 0.74 0.76 0.79 0.83 0.84 0.86 0.88 0.83 0.79 0.72 0.67 0.65 0.62 0.55 0.47 0.41 0.38 0.34 0.33 0.31 0.28
1.57 1.62 1.59 1.50 1.42 1.38 1.46 1.54 1.33 1.18 1.10 0.99 0.95 0.83 0.75 0.72 0.67 0.72 0.73 0.72 0.81 0.83 0.79 0.70 0.69 0.72 0.76 0.82 0.86 0.86 0.84 0.79 0.73 0.69 0.66 0.65 0.61 0.51 0.44 0.40 0.39 0.38 0.35
1.86 1.93 1.93 1.90 1.82 1.77 1.78 1.71 1.67 1.48 1.49 1.39 1.16 1.02 0.92 0.85 0.83 0.80 0.77 0.76 0.75 0.79 0.78 0.69 0.63 0.60 0.60 0.64 0.69 0.78 0.84 0.83 0.77 0.72 0.71 0.73 0.71 0.64 0.55 0.50 0.47 0.43 0.41
2.33 2.33 2.27 2.31 2.31 2.31 2.14 2.03 1.92 1.70 1.55 1.45 1.25 1.14 1.06 0.99 0.88 0.80 0.71 0.66 0.63 0.59 0.59 0.62 0.62 0.53 0.49 0.51 0.56 0.63 0.71 0.80 0.86 0.83 0.78 0.81 0.80 0.73 0.64 0.58 0.55 0.52 0.49
2.97 2.89 2.83 2.73 2.57 2.48 2.31 2.11 1.94 1.77 1.60 1.39 1.34 1.18 0.97 0.84 0.75 0.66 0.59 0.55 0.50 0.46 0.42 0.44 0.50 0.51 0.47 0.43 0.44 0.50 0.61 0.74 0.82 0.81 0.77 0.80 0.81 0.77 0.71 0.66 0.62 0.57 0.57
3.69 3.51 3.31 3.03 2.69 2.51 2.39 2.16 1.91 1.74 1.53 1.35 1.30 1.25 1.02 0.81 0.64 0.53 0.47 0.43 0.40 0.38 0.34 0.30 0.34 0.38 0.36 0.31 0.31 0.39 0.45 0.47 0.49 0.57 0.68 0.75 0.75 0.74 0.74 0.73 0.72 0.71 0.69
3.84 3.54 3.18 2.91 2.65 2.46 2.30 2.16 1.94 1.76 1.53 1.29 1.15 1.16 1.10 0.96 0.72 0.57 0.44 0.35 0.32 0.29 0.25 0.21 0.21 0.21 0.23 0.23 0.24 0.29 0.37 0.41 0.39 0.41 0.53 0.65 0.67 0.67 0.70 0.73 0.76 0.79 0.83
3.51 3.06 2.77 2.69 2.45 2.24 2.08 1.87 1.65 1.49 1.35 1.20 1.09 1.00 0.90 0.80 0.71 0.62 0.51 0.41 0.34 0.30 0.27 0.25 0.22 0.19 0.19 0.19 0.20 0.21 0.24 0.27 0.28 0.29 0.34 0.41 0.46 0.49 0.53 0.59 0.68 0.76 0.83
2.95 2.68 2.43 2.38 2.25 1.97 1.70 1.43 1.22 1.11 1.02 0.97 0.92 0.86 0.79 0.67 0.57 0.52 0.50 0.42 0.37 0.32 0.26 0.24 0.24 0.21 0.19 0.19 0.19 0.21 0.22 0.21 0.23 0.26 0.28 0.31 0.35 0.40 0.44 0.50 0.59 0.70 0.79
2.41 2.17 1.90 1.72 1.59 1.39 1.22 1.06 0.91 0.85 0.80 0.77 0.72 0.69 0.68 0.64 0.57 0.50 0.47 0.42 0.39 0.37 0.30 0.24 0.19 0.18 0.16 0.15 0.15 0.20 0.20 0.21 0.22 0.22 0.21 0.20 0.21 0.23 0.29 0.38 0.47 0.57 0.69
1.77 1.54 1.33 1.19 1.07 0.95 0.86 0.81 0.78 0.73 0.65 0.58 0.53 0.49 0.48 0.43 0.41 0.42 0.45 0.44 0.40 0.36 0.30 0.24 0.17 0.12 0.11 0.12 0.15 0.19 0.22 0.19 0.18 0.16 0.15 0.13 0.12 0.12 0.13 0.17 0.25 0.36 0.49
1.21 1.06 0.93 0.84 0.77 0.73 0.67 0.63 0.58 0.52 0.46 0.42 0.39 0.36 0.34 0.32 0.32 0.34 0.38 0.42 0.44 0.38 0.27 0.20 0.15 0.12 0.11 0.14 0.22 0.25 0.26 0.17 0.13 0.11 0.09 0.07 0.07 0.07 0.08 0.10 0.13 0.17 0.24
0.79 0.68 0.60 0.56 0.54 0.50 0.46 0.40 0.34 0.33 0.35 0.36 0.34 0.33 0.31 0.29 0.29 0.29 0.30 0.34 0.40 0.41 0.32 0.20 0.17 0.15 0.16 0.23 0.36 0.37 0.33 0.23 0.16 0.11 0.08 0.06 0.05 0.06 0.07 0.08 0.08 0.10 0.13
0.49 0.43 0.38 0.36 0.35 0.35 0.34 0.32 0.30 0.28 0.28 0.29 0.28 0.26 0.24 0.22 0.22 0.21 0.23 0.25 0.30 0.39 0.35 0.20 0.13 0.12 0.16 0.21 0.35 0.38 0.40 0.35 0.25 0.16 0.11 0.08 0.07 0.07 0.08 0.10 0.11 0.12 0.15
0.36 0.34 0.32 0.31 0.30 0.31 0.32 0.33 0.35 0.33 0.30 0.27 0.23 0.21 0.19 0.16 0.17 0.17 0.18 0.20 0.23 0.30 0.34 0.22 0.14 0.13 0.17 0.24 0.31 0.34 0.34 0.32 0.28 0.26 0.18 0.15 0.13 0.11 0.11 0.12 0.14 0.17 0.21
0.33 0.33 0.33 0.31 0.29 0.27 0.28 0.29 0.29 0.28 0.27 0.24 0.20 0.17 0.16 0.15 0.15 0.15 0.16 0.18 0.21 0.28 0.36 0.34 0.21 0.14 0.16 0.21 0.27 0.29 0.25 0.24 0.27 0.29 0.22 0.16 0.13 0.13 0.18 0.15 0.13 0.16 0.22
0.29 0.28 0.27 0.27 0.27 0.26 0.25 0.23 0.22 0.21 0.19 0.18 0.18 0.18 0.18 0.18 0.17 0.17 0.19 0.21 0.24 0.28 0.37 0.40 0.27 0.20 0.19 0.26 0.36 0.35 0.30 0.38 0.31 0.26 0.22 0.18 0.16 0.17 0.40 0.46 0.22 0.18 0.21
0.25 0.22 0.20 0.19 0.19 0.18 0.16 0.14 0.11 0.11 0.11 0.10 0.11 0.14 0.16 0.17 0.19 0.23 0.24 0.27 0.31 0.36 0.37 0.39 0.32 0.25 0.26 0.31 0.43 0.50 0.46 0.43 0.39 0.24 0.27 0.24 0.23 0.28 0.65 1.20 0.67 0.35 0.29
0.20 0.18 0.17 0.15 0.13 0.11 0.08 0.06 0.05 0.05 0.07 0.08 0.09 0.12 0.13 0.14 0.19 0.21 0.23 0.27 0.36 0.42 0.44 0.47 0.42 0.36 0.34 0.43 0.51 0.53 0.50 0.48 0.41 0.33 0.39 0.35 0.50 0.84 1.36 2.00 1.54 0.88 0.63
0.19 0.15 0.12 0.10 0.09 0.06 0.05 0.04 0.03 0.04 0.06 0.09 0.13 0.13 0.10 0.10 0.10 0.11 0.15 0.23 0.32 0.42 0.50 0.56 0.54 0.52 0.46 0.51 0.60 0.61 0.61 0.60 0.49 0.36 0.40 0.41 0.70 1.45 2.16 2.54 2.11 1.31 0.98
0.16 0.13 0.09 0.08 0.08 0.06 0.03 0.02 0.02 0.04 0.09 0.14 0.17 0.16 0.12 0.10 0.14 0.20 0.19 0.19 0.28 0.34 0.47 0.62 0.67 0.60 0.57 0.60 0.71 0.75 0.71 0.70 0.66 0.48 0.50 0.54 0.87 1.73 2.08 2.30 2.11 1.44 1.14
0.15 0.13 0.10 0.08 0.09 0.05 0.01 0.01 0.02 0.05 0.11 0.13 0.14 0.16 0.21 0.24 0.18 0.15 0.17 0.27 0.39 0.46 0.50 0.56 0.65 0.60 0.56 0.57 0.65 0.68 0.67 0.68 0.62 0.55 0.58 0.68 0.97 1.61 1.73 1.87 1.94 1.50 1.23
0.15 0.12 0.10 0.10 0.12 0.09 0.01 0.01 0.01 0.06 0.11 0.11 0.11 0.12 0.15 0.21 0.15 0.14 0.22 0.40 0.49 0.61 0.62 0.74 0.74 0.68 0.67 0.65 0.56 0.54 0.68 0.79 0.73 0.54 0.53 0.67 0.92 1.27 1.40 1.54 1.57 1.46 1.34
0.15 0.11 0.10 0.12 0.12 0.11 0.03 0.01 0.02 0.06 0.11 0.11 0.15 0.18 0.14 0.11 0.12 0.17 0.26 0.45 0.61 0.68 0.83 1.02 0.98 0.91 0.85 0.80 0.67 0.61 0.79 0.91 0.87 0.70 0.56 0.63 0.81 1.00 1.22 1.31 1.26 1.23 1.32

GEFSMA_prec_meanprecacc_120.txt.gz
Total_Precipitation_Accumulation
0.84 0.80 0.81 0.82 0.82 0.85 0.81 0.73 0.60 0.48 0.40 0.37 0.31 0.31 0.33 0.33 0.37 0.42 0.50 0.47 0.41 0.54 0.74 0.84 0.82 0.80 0.76 0.69 0.64 0.61 0.58 0.57 0.54 0.47 0.38 0.33 0.31 0.30 0.30 0.29 0.29 0.30 0.31
1.13 1.06 1.08 1.09 1.01 1.04 1.06 0.98 0.80 0.70 0.58 0.55 0.51 0.50 0.50 0.46 0.46 0.50 0.60 0.57 0.51 0.55 0.76 0.93 1.01 1.01 0.97 0.91 0.84 0.73 0.69 0.67 0.65 0.58 0.52 0.45 0.39 0.36 0.36 0.34 0.31 0.29 0.28
1.46 1.38 1.39 1.40 1.23 1.20 1.27 1.28 1.09 0.96 0.85 0.74 0.76 0.72 0.67 0.69 0.68 0.69 0.76 0.79 0.77 0.74 0.83 0.85 0.90 0.95 0.96 0.96 0.95 0.88 0.83 0.75 0.70 0.69 0.65 0.58 0.50 0.44 0.40 0.37 0.36 0.34 0.31
1.69 1.73 1.68 1.57 1.50 1.48 1.56 1.66 1.46 1.30 1.21 1.10 1.07 0.94 0.85 0.82 0.76 0.82 0.85 0.86 0.99 0.98 0.91 0.80 0.79 0.83 0.87 0.93 0.95 0.92 0.89 0.83 0.77 0.72 0.69 0.68 0.64 0.53 0.46 0.42 0.41 0.40 0.36
2.02 2.08 2.07 2.01 1.92 1.89 1.90 1.82 1.80 1.61 1.61 1.51 1.27 1.12 1.01 0.95 0.94 0.92 0.92 0.94 0.95 1.00 0.98 0.84 0.75 0.72 0.70 0.73 0.79 0.87 0.90 0.87 0.81 0.76 0.74 0.75 0.73 0.65 0.55 0.51 0.48 0.44 0.42
2.52 2.52 2.45 2.46 2.44 2.44 2.27 2.15 2.04 1.83 1.71 1.62 1.40 1.26 1.17 1.09 0.99 0.91 0.84 0.82 0.80 0.75 0.76 0.79 0.78 0.66 0.58 0.60 0.65 0.72 0.79 0.86 0.91 0.87 0.82 0.84 0.83 0.74 0.65 0.59 0.56 0.53 0.50
3.10 3.06 3.00 2.88 2.71 2.62 2.46 2.26 2.07 1.90 1.74 1.55 1.50 1.31 1.09 0.96 0.86 0.76 0.71 0.68 0.64 0.59 0.57 0.61 0.68 0.67 0.60 0.53 0.52 0.58 0.69 0.81 0.88 0.85 0.79 0.82 0.83 0.79 0.73 0.67 0.63 0.59 0.58
3.79 3.62 3.46 3.17 2.81 2.63 2.51 2.31 2.07 1.89 1.68 1.51 1.46 1.39 1.15 0.96 0.77 0.64 0.60 0.57 0.54 0.52 0.48 0.45 0.50 0.53 0.50 0.44 0.42 0.49 0.55 0.55 0.56 0.62 0.72 0.79 0.78 0.77 0.77 0.76 0.75 0.72 0.70
3.92 3.64 3.31 3.04 2.76 2.57 2.41 2.30 2.11 1.95 1.71 1.49 1.35 1.38 1.31 1.13 0.86 0.72 0.59 0.51 0.48 0.46 0.42 0.36 0.35 0.34 0.34 0.35 0.36 0.41 0.50 0.53 0.49 0.49 0.58 0.69 0.70 0.70 0.73 0.76 0.79 0.82 0.85
3.60 3.17 2.92 2.85 2.60 2.36 2.20 2.02 1.83 1.70 1.59 1.44 1.32 1.21 1.10 0.99 0.90 0.83 0.73 0.63 0.56 0.53 0.49 0.44 0.38 0.32 0.31 0.31 0.31 0.31 0.34 0.37 0.35 0.34 0.39 0.45 0.50 0.53 0.57 0.64 0.73 0.80 0.86
3.06 2.80 2.58 2.56 2.43 2.14 1.88 1.63 1.43 1.33 1.29 1.24 1.17 1.10 1.01 0.88 0.77 0.72 0.73 0.69 0.65 0.59 0.52 0.49 0.45 0.40 0.35 0.33 0.31 0.31 0.33 0.32 0.33 0.32 0.32 0.35 0.39 0.45 0.50 0.56 0.66 0.76 0.84
2.51 2.28 2.03 1.87 1.74 1.53 1.37 1.24 1.11 1.05 1.03 1.02 0.97 0.92 0.89 0.85 0.79 0.72 0.69 0.65 0.66 0.69 0.60 0.50 0.42 0.35 0.31 0.29 0.29 0.32 0.30 0.30 0.30 0.28 0.25 0.23 0.25 0.29 0.36 0.45 0.54 0.63 0.74
1.88 1.65 1.45 1.32 1.23 1.11 1.00 0.96 0.94 0.90 0.82 0.76 0.72 0.72 0.72 0.67 0.65 0.67 0.73 0.76 0.73 0.70 0.64 0.56 0.43 0.32 0.27 0.24 0.26 0.29 0.30 0.25 0.23 0.22 0.20 0.19 0.18 0.17 0.19 0.24 0.31 0.41 0.52
1.33 1.22 1.07 0.96 0.92 0.89 0.82 0.75 0.70 0.67 0.61 0.56 0.52 0.52 0.53 0.52 0.54 0.62 0.69 0.76 0.80 0.73 0.59 0.51 0.42 0.32 0.26 0.25 0.32 0.34 0.32 0.22 0.17 0.15 0.13 0.12 0.12 0.11 0.13 0.14 0.16 0.19 0.25
0.87 0.80 0.73 0.69 0.65 0.61 0.57 0.49 0.42 0.43 0.48 0.48 0.46 0.45 0.45 0.46 0.47 0.52 0.56 0.62 0.68 0.70 0.59 0.45 0.39 0.33 0.28 0.33 0.47 0.44 0.38 0.29 0.21 0.15 0.12 0.10 0.09 0.09 0.09 0.10 0.10 0.11 0.14
0.54 0.50 0.45 0.44 0.42 0.42 0.42 0.39 0.36 0.34 0.36 0.40 0.40 0.39 0.39 0.39 0.40 0.42 0.46 0.48 0.52 0.59 0.57 0.40 0.30 0.27 0.27 0.30 0.45 0.44 0.45 0.39 0.28 0.18 0.13 0.10 0.09 0.09 0.09 0.10 0.11 0.13 0.15
0.39 0.37 0.37 0.35 0.34 0.36 0.37 0.39 0.40 0.38 0.36 0.35 0.34 0.34 0.33 0.33 0.35 0.34 0.37 0.40 0.42 0.48 0.54 0.43 0.32 0.27 0.29 0.33 0.38 0.38 0.37 0.35 0.30 0.27 0.19 0.15 0.13 0.11 0.11 0.12 0.14 0.17 0.21
0.36 0.36 0.37 0.35 0.32 0.31 0.32 0.34 0.34 0.34 0.34 0.31 0.28 0.27 0.28 0.28 0.30 0.31 0.33 0.35 0.39 0.45 0.53 0.50 0.36 0.27 0.26 0.28 0.31 0.32 0.28 0.26 0.27 0.30 0.23 0.16 0.14 0.13 0.18 0.15 0.13 0.16 0.22
0.32 0.30 0.30 0.29 0.30 0.30 0.30 0.29 0.28 0.28 0.27 0.27 0.25 0.25 0.27 0.28 0.27 0.27 0.30 0.33 0.37 0.41 0.49 0.52 0.40 0.30 0.27 0.31 0.41 0.39 0.32 0.40 0.32 0.27 0.22 0.18 0.16 0.17 0.40 0.46 0.22 0.18 0.21
0.28 0.25 0.23 0.21 0.20 0.21 0.21 0.19 0.17 0.17 0.17 0.16 0.17 0.20 0.23 0.25 0.26 0.30 0.31 0.35 0.39 0.43 0.45 0.47 0.39 0.31 0.32 0.35 0.47 0.53 0.49 0.45 0.39 0.24 0.27 0.24 0.23 0.28 0.65 1.20 0.67 0.35 0.29
0.23 0.22 0.20 0.17 0.14 0.14 0.12 0.11 0.11 0.11 0.13 0.13 0.14 0.17 0.18 0.19 0.23 0.25 0.27 0.33 0.41 0.47 0.49 0.52 0.46 0.41 0.38 0.47 0.54 0.56 0.53 0.50 0.42 0.33 0.39 0.35 0.50 0.84 1.37 2.00 1.54 0.88 0.63
0.23 0.19 0.14 0.13 0.11 0.09 0.09 0.08 0.08 0.10 0.11 0.13 0.16 0.16 0.13 0.12 0.12 0.13 0.17 0.24 0.35 0.45 0.53 0.60 0.58 0.55 0.49 0.54 0.63 0.64 0.63 0.61 0.51 0.36 0.40 0.42 0.70 1.45 2.16 2.54 2.11 1.31 0.98
0.21 0.18 0.12 0.10 0.11 0.08 0.04 0.04 0.04 0.07 0.13 0.19 0.21 0.19 0.15 0.11 0.15 0.20 0.19 0.20 0.28 0.35 0.49 0.65 0.70 0.63 0.60 0.63 0.73 0.77 0.72 0.72 0.68 0.50 0.51 0.55 0.87 1.73 2.08 2.30 2.11 1.44 1.14
0.20 0.18 0.14 0.11 0.12 0.08 0.03 0.03 0.03 0.07 0.13 0.15 0.15 0.17 0.22 0.25 0.19 0.16 0.17 0.28 0.39 0.47 0.51 0.56 0.66 0.62 0.59 0.60 0.67 0.71 0.69 0.70 0.63 0.56 0.58 0.70 0.99 1.61 1.73 1.87 1.94 1.50 1.23
0.20 0.17 0.14 0.13 0.14 0.10 0.02 0.01 0.02 0.07 0.11 0.11 0.11 0.12 0.15 0.21 0.15 0.14 0.23 0.41 0.50 0.61 0.63 0.75 0.75 0.69 0.69 0.68 0.59 0.57 0.71 0.82 0.76 0.57 0.54 0.69 0.94 1.28 1.41 1.55 1.57 1.46 1.34
0.20 0.16 0.14 0.14 0.14 0.12 0.03 0.01 0.02 0.07 0.11 0.12 0.15 0.19 0.15 0.11 0.12 0.17 0.27 0.47 0.63 0.70 0.84 1.03 0.99 0.92 0.86 0.81 0.68 0.63 0.82 0.96 0.93 0.75 0.59 0.65 0.83 1.01 1.24 1.32 1.27 1.24 1.32

GEFSMA_prec_meanprecacc_126.txt.gz
Total_Precipitation_Accumulation
1.10 1.07 1.05 1.07 1.06 1.11 1.07 0.99 0.84 0.68 0.56 0.47 0.39 0.38 0.38 0.38 0.45 0.51 0.60 0.56 0.48 0.62 0.83 0.93 0.90 0.88 0.82 0.73 0.67 0.65 0.62 0.60 0.56 0.49 0.40 0.36 0.34 0.31 0.31 0.31 0.31 0.31 0.33
1.45 1.38 1.38 1.37 1.25 1.28 1.31 1.26 1.09 0.96 0.78 0.66 0.58 0.54 0.53 0.49 0.54 0.61 0.73 0.72 0.62 0.64 0.84 1.03 1.12 1.12 1.06 0.98 0.90 0.79 0.74 0.72 0.70 0.62 0.55 0.47 0.40 0.38 0.37 0.35 0.32 0.30 0.29
1.74 1.66 1.65 1.65 1.46 1.43 1.54 1.55 1.39 1.19 1.02 0.86 0.84 0.78 0.73 0.75 0.75 0.79 0.92 0.98 0.97 0.90 0.93 0.94 1.00 1.06 1.08 1.07 1.03 0.96 0.90 0.80 0.74 0.72 0.68 0.61 0.53 0.47 0.41 0.38 0.37 0.35 0.32
1.85 1.89 1.85 1.77 1.70 1.71 1.86 1.95 1.72 1.52 1.40 1.27 1.20 1.04 0.94 0.91 0.85 0.93 0.98 1.06 1.26 1.23 1.07 0.90 0.89 0.94 0.99 1.05 1.05 1.01 0.97 0.88 0.80 0.75 0.72 0.70 0.66 0.56 0.48 0.43 0.42 0.41 0.38
2.13 2.20 2.20 2.17 2.12 2.12 2.14 2.05 2.06 1.85 1.84 1.73 1.43 1.26 1.14 1.08 1.08 1.06 1.08 1.14 1.20 1.27 1.20 1.02 0.90 0.87 0.84 0.87 0.91 0.98 0.99 0.94 0.85 0.79 0.77 0.77 0.75 0.67 0.58 0.53 0.49 0.45 0.43
2.58 2.61 2.56 2.58 2.61 2.64 2.47 2.36 2.29 2.05 1.90 1.83 1.57 1.41 1.32 1.24 1.15 1.08 1.03 1.04 1.06 1.02 1.03 1.01 0.97 0.84 0.77 0.74 0.77 0.83 0.89 0.95 0.98 0.94 0.87 0.87 0.85 0.76 0.67 0.60 0.58 0.55 0.52
3.16 3.14 3.11 3.03 2.88 2.78 2.63 2.44 2.28 2.13 1.95 1.75 1.68 1.46 1.22 1.07 0.98 0.90 0.88 0.88 0.85 0.82 0.83 0.88 0.92 0.89 0.80 0.70 0.66 0.72 0.83 0.93 0.99 0.95 0.87 0.88 0.87 0.81 0.75 0.69 0.65 0.60 0.59
3.85 3.69 3.55 3.28 2.92 2.75 2.65 2.47 2.27 2.11 1.89 1.70 1.63 1.56 1.28 1.06 0.86 0.73 0.71 0.70 0.70 0.73 0.72 0.67 0.71 0.72 0.67 0.61 0.59 0.65 0.69 0.71 0.73 0.76 0.83 0.86 0.82 0.80 0.80 0.78 0.78 0.75 0.72
3.97 3.69 3.37 3.13 2.87 2.67 2.52 2.44 2.29 2.16 1.93 1.71 1.56 1.59 1.49 1.27 0.98 0.82 0.71 0.64 0.62 0.64 0.67 0.59 0.54 0.50 0.49 0.50 0.51 0.55 0.64 0.67 0.65 0.65 0.72 0.79 0.79 0.78 0.79 0.81 0.83 0.86 0.88
3.63 3.20 2.96 2.91 2.71 2.50 2.32 2.13 1.97 1.88 1.79 1.64 1.53 1.40 1.29 1.17 1.06 0.97 0.88 0.81 0.73 0.69 0.68 0.64 0.60 0.52 0.49 0.49 0.48 0.47 0.49 0.48 0.47 0.46 0.50 0.55 0.58 0.61 0.64 0.70 0.78 0.85 0.90
3.09 2.83 2.61 2.60 2.49 2.24 1.99 1.73 1.54 1.46 1.44 1.42 1.36 1.30 1.21 1.06 0.91 0.85 0.88 0.86 0.84 0.79 0.71 0.67 0.62 0.57 0.53 0.50 0.45 0.46 0.48 0.44 0.45 0.47 0.46 0.47 0.48 0.51 0.56 0.63 0.73 0.83 0.91
2.55 2.31 2.06 1.90 1.78 1.59 1.45 1.32 1.19 1.15 1.15 1.17 1.16 1.11 1.07 1.01 0.93 0.86 0.84 0.81 0.85 0.91 0.81 0.70 0.60 0.51 0.45 0.42 0.42 0.47 0.44 0.43 0.44 0.44 0.42 0.40 0.40 0.41 0.45 0.53 0.63 0.74 0.86
1.92 1.69 1.49 1.37 1.29 1.18 1.09 1.05 1.02 0.99 0.93 0.90 0.88 0.91 0.92 0.86 0.82 0.85 0.91 0.94 0.92 0.90 0.86 0.79 0.64 0.51 0.43 0.38 0.40 0.43 0.42 0.38 0.34 0.32 0.29 0.27 0.25 0.25 0.26 0.31 0.40 0.51 0.64
1.37 1.26 1.11 1.01 0.96 0.94 0.90 0.87 0.83 0.78 0.72 0.67 0.65 0.67 0.71 0.71 0.74 0.82 0.88 0.97 1.03 0.96 0.80 0.72 0.64 0.53 0.45 0.42 0.49 0.49 0.43 0.32 0.27 0.22 0.20 0.18 0.18 0.18 0.19 0.21 0.24 0.28 0.33
0.90 0.84 0.78 0.75 0.72 0.67 0.62 0.57 0.54 0.55 0.60 0.60 0.56 0.56 0.59 0.61 0.64 0.70 0.75 0.83 0.90 0.93 0.83 0.67 0.60 0.54 0.46 0.48 0.62 0.54 0.45 0.37 0.28 0.21 0.18 0.17 0.17 0.17 0.17 0.16 0.16 0.16 0.18
0.57 0.54 0.50 0.50 0.51 0.53 0.50 0.46 0.45 0.43 0.45 0.50 0.51 0.49 0.49 0.51 0.53 0.55 0.61 0.64 0.68 0.76 0.76 0.60 0.49 0.45 0.43 0.44 0.56 0.51 0.51 0.46 0.33 0.23 0.18 0.15 0.13 0.13 0.14 0.14 0.14 0.15 0.18
0.41 0.40 0.41 0.39 0.40 0.45 0.47 0.47 0.47 0.45 0.42 0.42 0.43 0.44 0.43 0.43 0.45 0.45 0.48 0.52 0.56 0.62 0.72 0.65 0.50 0.43 0.42 0.44 0.47 0.44 0.42 0.39 0.34 0.30 0.22 0.18 0.15 0.13 0.13 0.14 0.15 0.19 0.22
0.39 0.39 0.40 0.38 0.36 0.35 0.38 0.41 0.41 0.40 0.39 0.37 0.35 0.35 0.35 0.37 0.39 0.39 0.41 0.45 0.52 0.59 0.69 0.68 0.53 0.41 0.37 0.36 0.37 0.37 0.31 0.28 0.30 0.32 0.25 0.18 0.15 0.14 0.18 0.16 0.13 0.16 0.22
0.35 0.33 0.32 0.32 0.32 0.32 0.32 0.32 0.33 0.32 0.32 0.31 0.30 0.32 0.34 0.36 0.36 0.36 0.38 0.42 0.49 0.56 0.66 0.67 0.55 0.43 0.37 0.38 0.46 0.43 0.36 0.43 0.35 0.29 0.24 0.18 0.16 0.17 0.40 0.46 0.22 0.18 0.21
0.30 0.27 0.24 0.23 0.23 0.23 0.22 0.21 0.20 0.21 0.22 0.22 0.23 0.27 0.32 0.35 0.36 0.39 0.40 0.44 0.49 0.55 0.58 0.62 0.53 0.43 0.42 0.43 0.54 0.60 0.55 0.50 0.43 0.26 0.28 0.24 0.23 0.28 0.65 1.20 0.67 0.35 0.29
0.26 0.24 0.21 0.19 0.16 0.15 0.15 0.14 0.14 0.14 0.17 0.18 0.19 0.22 0.24 0.27 0.32 0.33 0.34 0.40 0.49 0.56 0.59 0.62 0.56 0.49 0.46 0.55 0.62 0.62 0.59 0.55 0.45 0.35 0.40 0.35 0.50 0.84 1.37 2.00 1.54 0.88 0.63
0.27 0.21 0.16 0.15 0.13 0.10 0.11 0.11 0.12 0.15 0.17 0.19 0.21 0.21 0.17 0.16 0.17 0.17 0.21 0.28 0.39 0.50 0.60 0.66 0.64 0.62 0.56 0.60 0.68 0.68 0.69 0.66 0.56 0.39 0.42 0.43 0.71 1.47 2.17 2.55 2.11 1.31 0.98
0.26 0.22 0.17 0.14 0.13 0.10 0.06 0.06 0.07 0.12 0.19 0.23 0.25 0.23 0.18 0.14 0.18 0.23 0.22 0.22 0.31 0.38 0.52 0.69 0.75 0.68 0.65 0.67 0.77 0.81 0.77 0.76 0.73 0.53 0.54 0.58 0.88 1.74 2.08 2.30 2.11 1.44 1.14
0.26 0.24 0.20 0.15 0.15 0.09 0.05 0.04 0.04 0.10 0.16 0.18 0.18 0.21 0.25 0.27 0.20 0.17 0.19 0.29 0.40 0.48 0.52 0.58 0.69 0.66 0.62 0.64 0.71 0.75 0.73 0.74 0.67 0.59 0.61 0.75 1.01 1.63 1.74 1.88 1.94 1.50 1.23
0.26 0.22 0.19 0.17 0.16 0.12 0.03 0.02 0.03 0.09 0.13 0.12 0.12 0.13 0.16 0.21 0.16 0.15 0.26 0.43 0.51 0.62 0.64 0.75 0.75 0.69 0.69 0.69 0.61 0.60 0.77 0.88 0.82 0.62 0.57 0.74 0.98 1.31 1.43 1.57 1.58 1.46 1.34
0.25 0.21 0.18 0.17 0.16 0.13 0.04 0.02 0.03 0.08 0.12 0.12 0.16 0.19 0.15 0.12 0.13 0.17 0.30 0.51 0.66 0.72 0.86 1.04 1.00 0.93 0.86 0.82 0.69 0.66 0.87 1.02 1.00 0.83 0.64 0.70 0.88 1.04 1.28 1.35 1.28 1.24 1.32

GEFSMA_prec_meanprecacc_132.txt.gz
Total_Precipitation_Accumulation
1.33 1.32 1.27 1.26 1.24 1.29 1.26 1.16 0.99 0.82 0.67 0.57 0.49 0.50 0.52 0.52 0.61 0.67 0.85 0.83 0.73 0.84 1.00 1.09 1.04 0.99 0.90 0.80 0.73 0.69 0.64 0.62 0.58 0.49 0.41 0.37 0.35 0.32 0.32 0.32 0.31 0.32 0.33
1.61 1.54 1.59 1.62 1.47 1.47 1.53 1.51 1.34 1.15 0.92 0.78 0.71 0.67 0.65 0.61 0.70 0.78 0.92 0.98 0.91 0.89 1.04 1.20 1.27 1.24 1.15 1.07 0.98 0.84 0.79 0.77 0.72 0.63 0.56 0.48 0.42 0.39 0.38 0.35 0.33 0.30 0.30
1.86 1.79 1.83 1.85 1.63 1.57 1.71 1.78 1.64 1.45 1.18 0.99 0.97 0.93 0.88 0.89 0.90 0.96 1.07 1.15 1.14 1.05 1.10 1.10 1.14 1.17 1.18 1.18 1.14 1.04 0.96 0.85 0.78 0.75 0.70 0.62 0.54 0.48 0.43 0.38 0.37 0.35 0.33
1.99 2.03 1.98 1.89 1.81 1.83 1.98 2.11 1.94 1.79 1.61 1.43 1.33 1.16 1.06 1.05 1.02 1.10 1.11 1.17 1.40 1.36 1.20 1.03 1.02 1.07 1.11 1.19 1.20 1.13 1.06 0.95 0.86 0.80 0.76 0.73 0.68 0.57 0.49 0.44 0.43 0.42 0.38
2.20 2.29 2.29 2.27 2.23 2.22 2.23 2.15 2.19 2.04 2.05 1.92 1.61 1.39 1.25 1.20 1.23 1.20 1.21 1.26 1.35 1.43 1.35 1.17 1.05 1.03 1.01 1.05 1.06 1.11 1.12 1.05 0.94 0.86 0.82 0.82 0.78 0.69 0.59 0.54 0.51 0.47 0.45
2.63 2.67 2.62 2.65 2.67 2.71 2.53 2.43 2.38 2.17 2.07 2.00 1.74 1.58 1.46 1.35 1.27 1.22 1.16 1.16 1.19 1.17 1.19 1.16 1.13 1.02 0.95 0.92 0.92 0.98 1.05 1.09 1.10 1.03 0.95 0.94 0.90 0.79 0.69 0.62 0.59 0.56 0.53
3.21 3.19 3.17 3.08 2.94 2.86 2.71 2.52 2.35 2.23 2.08 1.90 1.83 1.62 1.38 1.21 1.09 1.01 1.02 1.02 0.98 0.96 0.98 1.06 1.10 1.04 0.96 0.85 0.82 0.89 1.02 1.11 1.14 1.07 0.98 0.96 0.92 0.85 0.78 0.72 0.67 0.62 0.61
3.88 3.72 3.58 3.31 2.97 2.80 2.70 2.52 2.32 2.17 1.99 1.82 1.75 1.70 1.43 1.20 0.95 0.82 0.81 0.80 0.83 0.86 0.85 0.83 0.90 0.87 0.80 0.74 0.75 0.82 0.88 0.90 0.89 0.90 0.94 0.95 0.89 0.85 0.85 0.83 0.82 0.78 0.75
3.99 3.71 3.40 3.16 2.91 2.73 2.59 2.49 2.34 2.21 2.01 1.82 1.68 1.72 1.61 1.41 1.11 0.92 0.80 0.74 0.74 0.78 0.80 0.74 0.72 0.70 0.66 0.66 0.69 0.72 0.77 0.79 0.78 0.78 0.83 0.89 0.87 0.85 0.86 0.87 0.89 0.91 0.93
3.66 3.23 2.99 2.94 2.74 2.53 2.37 2.19 2.02 1.94 1.86 1.75 1.65 1.51 1.40 1.32 1.22 1.08 0.97 0.90 0.83 0.82 0.83 0.80 0.79 0.74 0.69 0.66 0.67 0.66 0.62 0.58 0.56 0.55 0.59 0.62 0.64 0.67 0.70 0.76 0.84 0.90 0.96
3.12 2.85 2.62 2.62 2.52 2.27 2.03 1.78 1.58 1.51 1.49 1.50 1.46 1.40 1.32 1.20 1.03 0.92 0.93 0.92 0.92 0.89 0.84 0.81 0.78 0.76 0.70 0.65 0.59 0.61 0.61 0.54 0.54 0.56 0.54 0.55 0.57 0.61 0.65 0.71 0.80 0.90 0.98
2.57 2.33 2.07 1.91 1.79 1.61 1.48 1.36 1.24 1.20 1.18 1.22 1.24 1.18 1.14 1.10 1.03 0.96 0.92 0.89 0.93 1.00 0.91 0.81 0.72 0.64 0.60 0.58 0.59 0.66 0.57 0.54 0.54 0.55 0.53 0.51 0.51 0.53 0.58 0.66 0.74 0.82 0.92
1.94 1.71 1.51 1.38 1.31 1.21 1.14 1.09 1.05 1.02 0.96 0.94 0.95 0.97 0.98 0.93 0.90 0.94 1.00 1.04 1.01 1.00 0.97 0.89 0.73 0.61 0.54 0.50 0.56 0.62 0.56 0.49 0.45 0.43 0.40 0.36 0.32 0.32 0.34 0.41 0.49 0.59 0.71
1.39 1.28 1.13 1.02 0.99 0.99 0.95 0.92 0.89 0.83 0.76 0.70 0.70 0.74 0.78 0.77 0.81 0.90 0.97 1.06 1.14 1.08 0.92 0.83 0.76 0.66 0.57 0.53 0.62 0.63 0.55 0.46 0.39 0.33 0.28 0.25 0.23 0.22 0.24 0.27 0.30 0.34 0.40
0.92 0.85 0.79 0.76 0.74 0.70 0.65 0.60 0.60 0.63 0.65 0.63 0.60 0.61 0.65 0.68 0.72 0.78 0.84 0.92 1.01 1.04 0.94 0.78 0.73 0.68 0.60 0.63 0.78 0.67 0.56 0.49 0.38 0.29 0.25 0.23 0.22 0.21 0.20 0.20 0.20 0.21 0.23
0.58 0.55 0.51 0.51 0.52 0.55 0.52 0.49 0.49 0.53 0.54 0.54 0.55 0.52 0.54 0.56 0.59 0.64 0.71 0.73 0.78 0.85 0.86 0.71 0.59 0.56 0.55 0.57 0.73 0.64 0.62 0.56 0.41 0.30 0.23 0.19 0.17 0.17 0.17 0.17 0.16 0.18 0.20
0.43 0.41 0.41 0.40 0.42 0.47 0.50 0.52 0.53 0.53 0.56 0.52 0.51 0.50 0.48 0.48 0.50 0.52 0.57 0.62 0.66 0.71 0.81 0.75 0.60 0.54 0.54 0.56 0.58 0.53 0.52 0.47 0.39 0.35 0.26 0.21 0.18 0.15 0.14 0.15 0.16 0.19 0.22
0.41 0.41 0.42 0.39 0.37 0.37 0.40 0.45 0.47 0.48 0.51 0.49 0.46 0.44 0.43 0.44 0.46 0.47 0.50 0.54 0.60 0.68 0.78 0.81 0.66 0.54 0.49 0.47 0.46 0.45 0.38 0.34 0.34 0.36 0.27 0.20 0.16 0.16 0.20 0.17 0.14 0.16 0.22
0.37 0.36 0.36 0.34 0.34 0.34 0.33 0.33 0.35 0.37 0.38 0.39 0.39 0.41 0.43 0.43 0.42 0.43 0.46 0.49 0.56 0.64 0.75 0.77 0.66 0.56 0.50 0.48 0.55 0.51 0.43 0.49 0.39 0.34 0.28 0.22 0.19 0.19 0.41 0.46 0.23 0.18 0.22
0.32 0.29 0.26 0.24 0.24 0.24 0.23 0.21 0.20 0.22 0.25 0.25 0.27 0.32 0.38 0.41 0.41 0.46 0.49 0.51 0.55 0.62 0.66 0.69 0.60 0.50 0.50 0.51 0.61 0.66 0.60 0.55 0.47 0.29 0.31 0.27 0.25 0.30 0.66 1.20 0.67 0.35 0.29
0.28 0.25 0.22 0.19 0.17 0.16 0.16 0.15 0.15 0.15 0.19 0.20 0.21 0.24 0.28 0.32 0.38 0.41 0.42 0.47 0.54 0.62 0.65 0.67 0.61 0.54 0.51 0.61 0.68 0.68 0.63 0.58 0.48 0.38 0.42 0.37 0.52 0.85 1.38 2.01 1.54 0.88 0.63
0.28 0.23 0.17 0.15 0.13 0.11 0.12 0.12 0.13 0.16 0.18 0.20 0.23 0.23 0.20 0.19 0.21 0.22 0.28 0.36 0.45 0.55 0.64 0.70 0.68 0.66 0.59 0.63 0.72 0.72 0.72 0.70 0.60 0.42 0.43 0.44 0.72 1.47 2.18 2.56 2.12 1.32 0.99
0.28 0.24 0.18 0.15 0.14 0.11 0.08 0.08 0.09 0.14 0.20 0.25 0.28 0.26 0.20 0.17 0.21 0.25 0.25 0.27 0.36 0.42 0.55 0.71 0.77 0.70 0.66 0.70 0.81 0.84 0.79 0.78 0.75 0.56 0.57 0.61 0.90 1.75 2.09 2.30 2.12 1.44 1.15
0.28 0.25 0.21 0.17 0.17 0.11 0.06 0.06 0.07 0.11 0.18 0.20 0.20 0.22 0.27 0.29 0.23 0.20 0.22 0.31 0.42 0.49 0.54 0.60 0.70 0.66 0.63 0.65 0.73 0.79 0.76 0.76 0.69 0.61 0.63 0.76 1.03 1.64 1.75 1.89 1.95 1.51 1.23
0.30 0.26 0.22 0.19 0.19 0.14 0.06 0.04 0.04 0.10 0.14 0.14 0.14 0.15 0.18 0.23 0.18 0.17 0.27 0.44 0.52 0.63 0.65 0.76 0.76 0.70 0.70 0.69 0.61 0.63 0.80 0.92 0.86 0.65 0.59 0.75 0.99 1.31 1.44 1.57 1.58 1.46 1.34
0.28 0.24 0.21 0.20 0.18 0.15 0.07 0.04 0.04 0.09 0.13 0.13 0.17 0.20 0.16 0.13 0.14 0.19 0.31 0.51 0.67 0.73 0.86 1.05 1.00 0.93 0.86 0.82 0.70 0.67 0.89 1.06 1.05 0.86 0.66 0.71 0.88 1.05 1.28 1.35 1.29 1.25 1.33

GEFSMA_prec_meanprecacc_138.txt.gz
Total_Precipitation_Accumulation
1.36 1.35 1.30 1.30 1.27 1.33 1.31 1.22 1.03 0.85 0.70 0.60 0.52 0.52 0.54 0.55 0.66 0.71 0.90 0.91 0.81 0.95 1.15 1.24 1.18 1.10 1.00 0.90 0.82 0.77 0.72 0.69 0.62 0.52 0.42 0.38 0.36 0.33 0.33 0.33 0.33 0.33 0.35
1.66 1.58 1.63 1.66 1.50 1.51 1.59 1.59 1.42 1.21 0.97 0.83 0.74 0.70 0.68 0.64 0.74 0.84 0.98 1.05 1.00 0.99 1.20 1.39 1.45 1.40 1.28 1.17 1.07 0.93 0.86 0.83 0.78 0.68 0.60 0.51 0.44 0.41 0.41 0.38 0.35 0.32 0.32
1.92 1.84 1.87 1.89 1.67 1.63 1.78 1.88 1.75 1.57 1.26 1.06 1.02 0.97 0.91 0.94 0.96 1.04 1.16 1.24 1.23 1.16 1.23 1.25 1.30 1.34 1.34 1.32 1.25 1.15 1.05 0.92 0.84 0.79 0.75 0.67 0.57 0.51 0.46 0.42 0.40 0.38 0.35
2.03 2.07 2.01 1.92 1.86 1.91 2.09 2.23 2.10 1.96 1.74 1.53 1.40 1.22 1.12 1.11 1.09 1.18 1.18 1.24 1.47 1.44 1.30 1.15 1.16 1.24 1.28 1.37 1.36 1.28 1.19 1.06 0.94 0.87 0.82 0.79 0.72 0.61 0.53 0.48 0.45 0.44 0.40
2.24 2.33 2.32 2.30 2.27 2.28 2.32 2.26 2.31 2.17 2.18 2.01 1.67 1.45 1.32 1.27 1.30 1.31 1.30 1.32 1.41 1.50 1.44 1.28 1.18 1.20 1.20 1.27 1.30 1.35 1.34 1.23 1.08 0.98 0.93 0.91 0.86 0.75 0.64 0.58 0.54 0.50 0.47
2.68 2.71 2.66 2.69 2.73 2.76 2.59 2.50 2.45 2.26 2.15 2.08 1.81 1.64 1.53 1.42 1.32 1.29 1.25 1.25 1.27 1.25 1.27 1.25 1.24 1.15 1.16 1.16 1.18 1.25 1.31 1.31 1.29 1.20 1.10 1.08 1.01 0.88 0.75 0.67 0.63 0.60 0.56
3.25 3.23 3.21 3.13 3.00 2.91 2.77 2.58 2.41 2.29 2.14 1.96 1.89 1.66 1.43 1.26 1.12 1.06 1.09 1.11 1.07 1.04 1.07 1.15 1.20 1.15 1.10 1.07 1.06 1.14 1.29 1.38 1.39 1.29 1.18 1.13 1.05 0.95 0.87 0.79 0.74 0.67 0.64
3.92 3.75 3.62 3.37 3.04 2.85 2.75 2.57 2.36 2.20 2.03 1.86 1.79 1.74 1.46 1.23 0.98 0.85 0.86 0.87 0.91 0.96 0.97 0.94 1.00 0.96 0.89 0.87 0.92 1.05 1.11 1.15 1.18 1.20 1.18 1.13 1.03 0.97 0.94 0.91 0.88 0.84 0.79
4.03 3.75 3.44 3.21 2.96 2.77 2.63 2.54 2.38 2.23 2.04 1.86 1.72 1.76 1.65 1.43 1.13 0.95 0.83 0.80 0.82 0.88 0.90 0.86 0.83 0.79 0.75 0.76 0.85 0.94 1.04 1.06 1.06 1.08 1.10 1.09 1.03 0.98 0.97 0.96 0.97 0.98 0.99
3.70 3.27 3.02 2.98 2.79 2.58 2.41 2.22 2.06 1.97 1.90 1.79 1.69 1.56 1.45 1.36 1.26 1.12 1.01 0.95 0.91 0.91 0.93 0.92 0.93 0.89 0.81 0.78 0.82 0.86 0.86 0.84 0.84 0.80 0.79 0.79 0.81 0.81 0.83 0.87 0.94 1.01 1.05
3.16 2.89 2.66 2.66 2.55 2.31 2.07 1.81 1.62 1.54 1.53 1.55 1.51 1.45 1.37 1.25 1.08 0.97 0.98 0.96 0.97 0.95 0.93 0.92 0.92 0.90 0.84 0.78 0.73 0.78 0.81 0.76 0.78 0.77 0.72 0.69 0.71 0.75 0.80 0.84 0.91 1.01 1.08
2.60 2.36 2.11 1.95 1.82 1.64 1.50 1.39 1.27 1.24 1.23 1.28 1.30 1.23 1.18 1.15 1.08 1.02 0.97 0.93 0.99 1.07 0.99 0.89 0.82 0.76 0.74 0.73 0.75 0.87 0.77 0.75 0.74 0.75 0.71 0.66 0.67 0.71 0.74 0.78 0.85 0.95 1.05
1.96 1.74 1.54 1.40 1.33 1.23 1.16 1.11 1.09 1.06 1.01 0.99 1.00 1.01 1.01 0.96 0.94 0.98 1.04 1.08 1.06 1.07 1.06 0.99 0.83 0.72 0.69 0.69 0.76 0.85 0.79 0.73 0.68 0.63 0.58 0.52 0.48 0.47 0.48 0.52 0.60 0.71 0.84
1.42 1.30 1.14 1.03 1.00 1.00 0.97 0.94 0.91 0.86 0.79 0.74 0.74 0.77 0.81 0.79 0.83 0.93 1.01 1.11 1.19 1.14 1.00 0.93 0.87 0.77 0.70 0.67 0.79 0.80 0.72 0.66 0.60 0.54 0.47 0.40 0.36 0.35 0.36 0.36 0.37 0.40 0.47
0.96 0.88 0.80 0.77 0.75 0.71 0.66 0.61 0.61 0.64 0.66 0.65 0.63 0.64 0.67 0.69 0.73 0.80 0.87 0.96 1.07 1.12 1.03 0.88 0.85 0.79 0.71 0.74 0.93 0.79 0.69 0.66 0.55 0.45 0.39 0.36 0.34 0.32 0.30 0.27 0.25 0.25 0.27
0.59 0.56 0.52 0.51 0.53 0.56 0.53 0.50 0.51 0.54 0.56 0.56 0.57 0.55 0.56 0.57 0.60 0.66 0.73 0.77 0.84 0.93 0.93 0.79 0.71 0.68 0.67 0.68 0.86 0.75 0.75 0.71 0.53 0.41 0.32 0.28 0.27 0.26 0.26 0.25 0.23 0.23 0.24
0.44 0.43 0.43 0.42 0.43 0.47 0.50 0.53 0.55 0.55 0.61 0.58 0.56 0.54 0.51 0.50 0.52 0.53 0.59 0.65 0.70 0.76 0.88 0.83 0.70 0.65 0.66 0.67 0.69 0.63 0.60 0.55 0.49 0.46 0.35 0.30 0.27 0.26 0.25 0.26 0.26 0.26 0.28
0.42 0.42 0.44 0.41 0.39 0.38 0.41 0.46 0.49 0.51 0.56 0.57 0.55 0.52 0.48 0.47 0.49 0.50 0.52 0.56 0.64 0.73 0.84 0.89 0.76 0.65 0.62 0.60 0.58 0.54 0.46 0.42 0.42 0.47 0.38 0.30 0.26 0.25 0.29 0.25 0.21 0.22 0.26
0.38 0.36 0.36 0.35 0.35 0.36 0.35 0.35 0.36 0.39 0.43 0.47 0.48 0.51 0.51 0.49 0.47 0.48 0.50 0.54 0.61 0.70 0.82 0.86 0.78 0.69 0.64 0.62 0.68 0.62 0.52 0.58 0.49 0.45 0.39 0.33 0.29 0.28 0.49 0.52 0.27 0.22 0.25
0.33 0.30 0.27 0.25 0.26 0.26 0.25 0.23 0.22 0.24 0.27 0.30 0.33 0.41 0.48 0.51 0.49 0.52 0.55 0.56 0.60 0.68 0.73 0.77 0.71 0.64 0.64 0.64 0.72 0.77 0.71 0.64 0.56 0.37 0.39 0.34 0.33 0.37 0.72 1.25 0.71 0.38 0.32
0.29 0.26 0.23 0.20 0.19 0.19 0.18 0.16 0.16 0.16 0.20 0.23 0.25 0.30 0.37 0.42 0.47 0.48 0.50 0.54 0.60 0.68 0.71 0.75 0.69 0.64 0.61 0.70 0.77 0.76 0.71 0.66 0.55 0.44 0.48 0.42 0.56 0.90 1.42 2.05 1.58 0.91 0.65
0.29 0.23 0.18 0.16 0.15 0.15 0.16 0.15 0.14 0.17 0.19 0.22 0.25 0.27 0.26 0.28 0.30 0.30 0.36 0.44 0.52 0.61 0.70 0.76 0.74 0.72 0.65 0.69 0.77 0.78 0.78 0.75 0.66 0.47 0.48 0.49 0.76 1.51 2.21 2.58 2.14 1.34 1.00
0.28 0.25 0.19 0.16 0.16 0.15 0.12 0.11 0.11 0.15 0.23 0.28 0.30 0.28 0.24 0.23 0.29 0.32 0.31 0.34 0.44 0.50 0.62 0.77 0.83 0.75 0.71 0.74 0.85 0.89 0.84 0.83 0.78 0.60 0.61 0.65 0.93 1.78 2.11 2.33 2.13 1.45 1.16
0.28 0.26 0.22 0.18 0.18 0.14 0.10 0.09 0.10 0.13 0.20 0.22 0.22 0.25 0.30 0.33 0.29 0.26 0.26 0.36 0.47 0.55 0.60 0.65 0.75 0.70 0.66 0.68 0.75 0.81 0.80 0.80 0.74 0.65 0.66 0.79 1.05 1.65 1.76 1.90 1.96 1.51 1.23
0.31 0.27 0.23 0.21 0.21 0.17 0.10 0.08 0.08 0.13 0.17 0.17 0.16 0.18 0.20 0.26 0.22 0.22 0.32 0.48 0.55 0.66 0.69 0.81 0.80 0.73 0.72 0.70 0.62 0.63 0.82 0.95 0.90 0.68 0.61 0.77 1.01 1.33 1.44 1.58 1.59 1.47 1.34
0.30 0.26 0.24 0.23 0.21 0.19 0.11 0.08 0.07 0.12 0.16 0.15 0.18 0.22 0.18 0.14 0.16 0.22 0.34 0.54 0.69 0.75 0.88 1.07 1.02 0.95 0.87 0.83 0.70 0.67 0.89 1.07 1.06 0.87 0.67 0.73 0.90 1.07 1.29 1.35 1.29 1.25 1.33